GEFSSE_500_meanwind_006.txt.gz
Wind_Speed
6 6 8 9 10 11 13 14 15 15 16 16 18 19 19 18 16 16 16 17 18 19 17 16 15 14 14 13 11 10 11 11 11 11 11 11 10 9 8 8 7 6 8
3 4 5 7 9 10 12 12 12 12 13 14 16 18 19 18 16 15 15 18 19 18 18 16 14 13 13 13 12 9 8 9 9 10 10 10 11 10 9 7 5 4 4
3 4 6 7 8 9 11 12 10 9 11 13 15 17 18 17 16 14 14 17 19 19 18 17 14 13 13 13 13 12 9 7 8 8 9 9 9 9 9 8 6 3 2
6 6 7 8 8 8 9 10 8 7 8 10 13 15 16 16 14 14 15 17 18 18 18 19 16 14 13 13 14 14 11 8 7 7 7 7 7 6 7 7 7 6 4
8 8 9 9 10 9 8 9 8 7 6 8 9 11 13 14 14 14 15 17 18 18 19 19 19 17 15 14 14 14 14 12 9 7 6 6 6 5 5 5 6 6 6
7 8 9 10 11 10 9 9 11 11 10 10 11 10 11 13 14 15 15 16 17 17 17 19 19 19 17 15 15 14 14 14 11 8 7 7 7 5 5 4 4 3 4
8 8 9 10 11 12 12 12 13 15 15 15 14 12 12 12 13 14 16 16 16 16 16 17 18 18 18 16 16 16 15 15 14 11 9 9 9 9 8 7 5 3 2
8 9 10 11 11 12 12 13 13 14 15 15 14 14 14 13 12 12 14 15 16 16 16 17 18 17 16 15 15 15 15 15 16 15 12 10 10 10 9 9 8 7 5
9 10 11 12 12 11 11 10 10 11 11 12 12 12 11 11 10 10 12 13 14 14 15 16 16 17 16 16 15 14 14 14 15 16 16 15 13 11 11 11 10 9 9
11 12 12 12 11 10 10 9 8 8 9 9 9 9 10 11 11 12 13 14 13 13 13 14 14 14 16 17 17 16 15 16 16 16 17 17 16 12 11 12 12 12 11
11 11 12 12 12 11 12 12 13 13 14 14 14 15 15 14 14 13 14 14 14 14 15 14 13 13 14 16 17 18 18 17 17 17 18 19 18 16 12 13 15 15 15
13 13 13 14 15 16 17 19 20 21 21 21 21 21 21 19 18 18 17 18 17 17 16 17 16 15 16 17 17 18 18 18 18 19 19 19 19 18 15 14 14 16 17
18 20 21 21 21 22 22 24 25 25 25 25 26 26 26 25 25 25 24 23 22 21 20 19 18 18 18 19 19 20 20 20 20 22 22 22 21 21 20 18 16 17 17
23 23 25 27 27 28 27 28 28 29 30 30 30 30 30 30 29 29 29 29 29 28 27 25 23 22 22 23 22 21 22 22 21 23 24 23 23 23 22 22 21 20 19
29 28 28 30 32 33 34 33 33 33 35 36 35 35 35 34 33 33 32 32 32 33 32 31 29 27 27 27 28 27 25 23 22 22 23 24 25 26 26 25 25 23 22
32 33 33 34 35 37 38 39 39 39 40 40 41 41 41 38 36 36 36 35 35 35 35 34 33 32 32 31 32 33 32 29 28 26 25 26 27 29 30 29 28 26 25
33 35 38 39 39 40 40 41 42 43 43 42 42 40 38 35 33 34 35 35 36 36 36 35 33 34 36 36 36 37 37 36 36 34 30 28 28 31 33 33 32 30 27
34 34 37 39 40 41 41 41 41 41 40 40 38 37 36 36 35 35 36 35 36 38 38 37 36 36 38 39 40 41 42 42 41 38 34 32 31 32 35 37 37 35 31
34 34 36 37 37 38 37 37 37 38 39 39 38 38 39 39 38 38 39 39 40 41 41 40 39 38 39 42 43 42 43 44 44 42 38 35 33 34 37 39 40 38 36
39 36 35 35 35 36 36 36 37 38 39 38 38 39 40 41 41 42 42 43 43 44 43 42 41 41 42 43 45 44 43 43 43 41 37 33 33 35 37 39 40 40 38
39 40 39 37 35 36 36 37 38 40 41 41 41 41 42 42 42 42 42 42 42 43 43 43 43 43 44 45 46 45 43 40 39 39 38 36 36 38 37 37 38 39 38
33 36 39 38 37 36 36 36 36 37 39 40 40 40 40 40 39 40 40 40 40 40 41 42 42 42 42 43 44 43 41 40 39 41 42 41 39 38 37 36 38 38 36
33 34 35 36 37 37 38 36 35 34 34 34 35 36 36 35 35 36 37 38 39 40 41 42 43 43 42 43 43 43 42 41 39 38 39 39 37 34 33 34 36 36 34
34 35 34 34 35 36 37 38 39 38 36 35 35 35 36 37 36 36 37 39 41 42 43 43 43 44 45 45 46 45 44 42 40 36 35 35 33 30 31 33 34 34 32
34 35 37 39 39 39 40 41 42 43 42 40 39 39 39 39 40 40 41 42 43 43 43 42 43 44 45 46 47 47 46 42 39 37 35 33 30 29 30 33 34 32 32
31 33 35 37 40 41 43 43 44 44 44 43 43 42 41 41 41 41 42 42 43 43 43 43 44 45 46 47 48 48 45 42 39 36 33 30 28 29 30 32 33 33 33

GEFSSE_500_meanwind_012.txt.gz
Wind_Speed
8 10 9 10 10 11 11 12 13 14 16 17 19 19 19 18 17 18 19 20 20 20 20 18 16 15 15 14 11 8 8 9 10 10 9 9 8 6 4 3 4 5 6
7 8 8 8 9 9 10 10 10 11 12 14 15 16 16 15 15 16 17 17 18 18 19 19 17 16 15 14 13 11 8 6 6 7 7 7 7 6 4 2 2 2 2
7 7 6 6 7 8 9 9 8 9 10 11 12 13 13 13 13 13 14 14 15 15 16 17 17 15 14 14 13 12 10 7 5 5 5 6 5 6 6 4 2 1 1
6 7 6 5 6 7 7 8 8 9 9 9 9 9 9 9 10 11 12 12 12 13 13 14 14 14 12 12 12 11 11 9 8 6 5 4 4 4 5 5 4 3 1
5 5 4 5 5 6 6 6 7 7 7 7 6 6 6 6 7 8 9 10 10 10 10 11 11 11 11 10 9 9 9 9 10 9 8 5 4 3 3 3 3 3 3
6 5 5 5 5 5 5 5 5 5 5 4 4 4 4 4 5 6 7 8 9 9 9 9 9 9 8 8 7 7 7 8 8 10 10 8 5 4 4 3 2 2 2
8 8 8 7 7 6 5 4 4 4 4 4 4 4 4 4 5 6 7 9 9 10 10 10 9 9 8 7 6 5 5 6 7 7 9 10 8 4 4 4 3 3 2
9 9 9 9 8 6 5 3 3 3 3 4 4 4 4 5 6 8 10 12 13 14 13 11 10 9 9 8 7 6 5 5 6 6 6 7 8 7 4 4 4 5 4
9 9 9 9 9 7 6 5 4 3 4 5 5 6 7 8 10 12 14 15 16 16 16 15 12 10 9 9 8 7 7 7 7 7 7 6 6 6 6 5 5 6 6
9 9 9 9 10 10 9 8 7 7 8 9 10 11 12 13 15 17 18 18 18 18 18 19 18 15 13 11 11 10 9 9 9 9 10 9 9 7 5 5 5 6 7
13 11 11 12 12 13 13 14 14 14 15 16 16 17 17 18 19 20 21 22 22 21 22 22 22 20 17 16 14 14 13 13 12 12 12 12 12 11 9 7 6 7 7
20 19 17 18 18 18 19 20 21 21 22 23 23 23 23 23 23 24 25 26 26 25 25 25 25 24 23 21 20 18 18 17 16 16 16 15 15 14 13 11 11 10 9
25 25 24 24 24 24 25 26 27 27 28 28 29 29 29 29 29 29 29 30 30 30 30 29 28 28 27 27 26 24 23 22 20 19 18 18 17 16 16 16 16 14 13
29 29 29 29 29 29 30 31 31 31 32 33 34 34 34 35 34 34 34 34 34 35 35 34 33 32 31 31 31 30 29 28 26 24 22 21 20 19 19 19 20 19 18
31 31 32 33 34 34 35 35 35 35 35 36 36 37 38 39 39 39 38 38 38 39 39 38 36 35 35 35 34 33 33 32 31 29 26 25 24 23 22 23 23 23 23
30 29 30 33 35 37 38 38 39 39 38 38 39 40 41 42 43 44 43 41 41 42 43 42 40 38 38 38 37 36 35 34 33 32 30 28 28 28 27 27 27 27 27
28 27 27 28 31 34 35 36 37 38 39 38 39 40 40 41 41 41 40 39 38 39 40 40 40 40 40 39 38 37 36 35 34 34 34 32 31 31 32 30 30 30 31
28 28 27 27 28 29 31 32 33 34 36 37 37 37 38 38 38 37 36 36 38 39 38 37 37 38 39 39 38 37 36 36 36 36 35 35 34 33 33 33 33 32 33
29 29 28 25 24 25 26 28 29 31 33 35 36 37 39 40 40 40 39 39 39 40 40 40 41 42 42 42 42 41 40 40 39 38 36 35 34 34 34 34 34 34 34
30 29 28 27 26 25 25 25 27 29 31 34 36 37 38 39 40 41 41 42 42 42 42 43 44 44 44 43 43 42 41 40 38 37 36 36 34 33 33 33 33 34 35
30 29 28 28 28 28 28 28 28 29 30 32 33 34 35 36 37 38 38 38 39 39 40 41 42 42 42 42 41 39 38 37 35 35 35 35 34 33 33 32 32 34 35
30 29 29 30 30 29 29 30 31 32 33 34 35 36 36 36 37 37 37 36 36 35 35 36 37 38 38 38 38 37 36 35 34 34 35 35 34 34 33 32 32 33 35
30 31 32 31 30 30 30 30 30 31 32 34 36 37 38 39 39 39 39 39 38 36 35 35 35 35 36 36 37 37 36 35 36 36 36 36 36 35 33 32 31 32 33
31 31 31 29 28 28 28 27 26 27 29 31 33 35 36 38 40 41 41 41 41 40 38 37 36 36 37 37 38 38 37 36 35 35 37 37 38 36 34 32 32 32 32
30 29 28 26 25 23 22 22 22 24 26 29 32 34 35 36 38 39 40 41 41 41 40 39 38 37 37 37 37 37 37 36 36 35 35 36 37 36 34 33 33 31 30
27 26 25 24 22 20 20 21 23 25 26 29 31 33 35 35 36 37 39 40 41 42 41 40 39 38 37 37 37 37 38 38 37 37 36 35 37 36 34 32 31 30 29

GEFSSE_500_meanwind_018.txt.gz
Wind_Speed
6 6 7 7 6 5 4 5 6 7 8 9 9 9 8 8 9 10 11 12 12 12 12 11 10 10 9 8 6 4 4 4 6 6 7 6 6 5 5 5 5 6 7
3 4 5 5 4 3 2 2 4 5 5 5 5 5 5 6 7 8 8 9 9 9 9 9 9 9 9 8 7 5 3 2 3 4 5 5 5 4 4 3 3 4 4
2 3 3 3 2 1 1 2 3 4 5 4 4 3 4 4 5 5 6 6 7 7 7 7 7 7 6 6 7 6 5 3 2 1 2 3 3 3 3 3 3 3 4
1 0 2 1 0 2 3 4 4 5 6 6 5 5 5 5 5 5 5 6 6 7 8 8 6 5 4 4 4 4 5 5 3 1 0 1 2 2 2 3 3 3 4
3 3 2 2 3 4 5 6 6 6 6 6 6 6 6 6 6 6 6 7 8 8 9 10 10 7 5 3 3 2 2 2 3 2 1 2 3 4 4 4 4 4 4
2 3 3 4 5 6 6 7 7 7 7 6 6 7 7 8 8 7 8 9 10 11 12 12 12 11 8 6 5 5 4 2 1 1 1 1 3 6 7 7 6 5 4
3 3 3 4 5 5 6 7 7 8 8 7 7 7 8 9 9 9 10 11 12 13 13 13 12 12 10 9 8 8 8 6 5 3 2 2 3 5 7 11 11 9 7
2 3 3 3 4 5 6 7 8 9 9 9 9 9 10 10 12 13 13 14 15 15 15 14 13 12 12 10 10 10 10 10 9 7 7 5 4 5 6 7 11 12 10
5 6 6 7 7 7 8 8 9 10 11 11 11 11 12 13 14 16 17 17 17 17 17 16 15 14 14 13 12 12 12 12 12 11 11 10 8 6 6 6 6 9 11
10 12 13 14 14 14 14 13 14 14 14 15 15 15 16 17 18 19 20 20 20 20 21 20 19 18 17 17 16 15 15 14 14 14 14 13 12 11 9 8 7 8 10
16 18 19 20 20 21 21 21 21 20 20 20 21 21 21 21 22 23 23 23 24 24 24 24 24 23 22 21 20 19 19 19 18 17 17 16 16 15 13 12 11 10 10
22 23 24 24 25 25 26 27 27 27 27 27 27 27 27 26 26 26 26 27 28 28 29 29 29 28 27 26 25 24 23 23 23 21 20 19 18 17 16 15 15 14 13
26 27 28 28 29 30 31 32 32 32 33 33 32 32 32 31 31 31 31 31 31 33 34 34 34 34 33 32 31 29 28 28 27 26 25 24 22 21 19 18 18 17 17
30 31 31 32 32 33 34 35 36 36 37 37 37 37 37 36 36 35 35 35 35 37 38 40 40 39 38 38 36 35 34 32 31 31 30 28 27 25 24 23 22 21 20
34 35 35 34 33 33 34 35 36 36 37 37 38 39 39 39 38 38 37 37 38 39 40 42 42 42 42 42 41 40 40 39 37 36 34 33 31 29 28 27 26 26 24
37 37 36 34 34 33 33 33 34 34 34 34 35 36 37 37 37 37 36 36 36 37 36 37 38 39 40 41 41 41 41 41 40 40 38 37 35 32 30 29 29 29 28
38 37 35 34 34 34 33 33 33 33 32 32 33 33 33 33 33 33 33 33 34 35 35 36 36 35 34 35 34 34 35 36 37 37 37 35 33 33 33 31 31 31 30
38 37 36 35 35 34 33 33 33 32 30 29 28 27 27 27 29 30 31 32 34 35 37 38 38 37 36 36 36 34 32 32 33 34 35 33 31 31 32 33 33 32 32
37 36 36 37 36 34 33 31 29 29 29 27 25 24 23 24 25 27 29 31 33 35 36 37 38 39 39 39 39 37 36 35 35 36 35 34 33 32 33 35 36 36 34
36 36 37 37 36 34 31 29 26 25 25 24 23 22 21 22 23 24 27 29 32 35 36 38 38 39 39 39 39 39 37 37 37 38 37 37 35 35 35 36 37 37 36
38 38 37 36 34 31 29 27 24 22 21 20 19 17 17 17 18 20 23 26 30 33 36 38 39 40 39 39 39 37 37 36 36 36 36 37 36 36 36 36 37 38 38
39 39 37 35 31 29 27 25 22 19 17 15 13 13 14 14 16 18 20 23 25 29 32 36 39 41 41 41 40 39 36 35 34 34 35 35 36 37 36 36 37 37 37
41 40 37 34 31 29 27 23 20 16 14 13 13 14 15 16 17 19 20 22 24 26 28 31 35 38 40 41 42 41 39 36 35 34 33 34 35 35 35 36 36 37 37
39 38 36 33 31 30 27 23 20 18 16 16 17 18 19 20 20 21 22 24 25 27 27 29 31 34 37 39 41 42 40 39 37 35 34 34 36 36 36 36 36 37 38
37 36 35 34 33 30 27 25 23 21 21 21 22 23 23 23 23 23 24 25 26 27 28 29 29 31 34 36 39 41 41 40 38 37 36 35 35 36 36 35 35 36 37
35 35 36 35 34 31 29 28 26 26 27 27 28 28 27 26 25 25 25 25 26 27 29 30 30 30 31 33 36 39 40 39 39 37 36 35 35 35 35 34 33 34 35

GEFSSE_500_meanwind_024.txt.gz
Wind_Speed
3 3 2 2 2 2 3 6 8 10 11 12 13 12 11 11 11 11 11 11 12 12 12 12 12 11 11 10 9 8 7 6 6 6 7 7 6 5 5 6 6 6 6
0 1 0 0 0 1 2 5 7 9 11 12 13 13 11 10 10 10 10 11 11 12 12 12 12 11 10 10 9 9 8 7 6 5 5 5 5 4 4 3 3 3 3
1 1 1 2 2 2 4 6 8 9 11 12 12 12 12 10 9 9 9 10 10 11 12 12 11 11 10 9 8 8 7 7 6 5 4 3 3 3 2 2 1 1 0
1 1 2 3 3 3 5 7 9 10 11 12 12 12 12 11 10 9 9 9 10 11 12 12 12 11 10 9 8 7 6 6 6 5 5 4 3 2 1 1 1 1 2
3 3 4 4 5 5 6 7 9 10 11 12 12 12 12 12 11 10 9 9 10 11 12 13 13 12 10 9 9 8 7 6 5 5 5 5 5 4 4 3 2 2 2
5 5 6 6 6 6 7 7 9 10 11 12 13 12 12 12 12 11 11 11 11 12 13 13 13 13 11 10 10 9 9 8 7 6 6 6 6 5 6 6 5 5 4
4 5 5 6 7 8 8 9 10 11 13 14 14 14 14 14 14 13 13 13 13 14 14 14 14 14 13 12 11 11 11 11 10 9 8 7 7 6 6 7 8 8 7
3 4 5 7 8 10 11 12 13 14 15 16 17 17 18 17 17 16 16 16 16 17 16 16 15 14 14 14 14 13 12 12 12 12 11 10 9 8 7 7 8 9 10
4 6 8 10 12 13 14 15 16 17 18 19 19 20 20 20 20 20 20 20 20 20 19 19 18 17 17 17 17 16 16 15 14 14 13 13 12 11 10 9 8 7 9
8 10 12 14 15 16 17 18 19 20 21 22 23 23 24 24 24 24 25 25 24 24 23 22 22 21 21 21 20 20 20 19 17 16 16 15 15 13 13 12 10 9 8
13 14 16 17 19 20 21 22 22 23 24 25 26 27 28 28 29 29 29 29 29 29 28 27 26 26 25 25 25 24 24 25 23 21 19 18 18 17 15 14 13 12 11
18 18 19 20 22 24 24 25 26 26 27 27 28 29 30 31 32 33 33 34 33 33 32 32 31 31 30 30 30 29 28 28 27 26 24 22 22 21 19 17 16 15 14
22 23 24 25 26 27 28 28 28 28 28 29 29 30 30 31 33 34 35 35 36 36 35 35 35 34 33 33 33 33 33 32 31 30 28 27 27 25 23 21 20 18 16
25 27 28 29 30 32 32 32 31 30 29 29 30 30 30 30 31 32 34 35 35 36 36 36 36 35 35 34 33 33 32 31 33 33 32 31 30 29 28 26 24 23 21
29 30 32 33 34 35 36 35 34 32 32 31 30 30 31 30 30 31 31 32 32 33 33 33 34 33 33 33 33 31 29 29 30 32 34 33 34 34 32 31 30 28 26
33 34 35 36 37 37 37 36 35 34 34 34 33 32 31 31 30 30 28 28 28 28 27 27 28 29 30 30 29 28 28 27 24 24 27 30 33 35 35 35 32 32 31
37 38 39 39 39 39 38 36 34 35 36 36 35 33 32 31 29 28 26 26 25 25 25 26 27 27 28 29 29 29 29 28 27 27 27 27 28 31 34 35 35 32 33
42 41 41 41 40 39 37 36 35 36 37 35 34 32 31 29 28 26 25 24 24 24 24 25 26 25 26 28 29 29 30 29 29 28 28 28 27 27 28 31 32 31 31
46 45 44 41 40 38 36 36 37 37 36 34 32 30 29 28 26 24 24 23 22 22 21 21 22 22 24 26 27 28 29 30 29 28 28 28 29 28 29 29 29 30 29
49 45 42 40 38 37 36 36 37 36 34 32 31 30 28 26 24 23 23 20 19 18 18 18 19 20 22 24 26 27 29 30 30 29 29 28 28 29 29 30 30 30 30
46 43 40 38 37 37 37 37 37 36 33 31 30 28 27 25 23 21 20 18 17 16 17 17 18 19 21 23 24 26 27 29 30 31 30 29 29 28 29 29 29 29 30
43 37 34 35 36 37 38 38 37 35 32 30 28 26 25 23 21 19 17 17 17 17 18 19 19 20 21 23 24 25 26 28 29 30 31 30 29 29 28 29 28 29 30
34 32 31 33 36 37 38 37 35 33 31 30 27 25 24 22 20 19 19 19 20 20 20 21 20 20 21 23 25 26 26 26 28 29 30 31 30 30 29 29 28 28 28
28 29 32 34 35 36 37 37 34 32 31 29 27 26 24 23 23 22 22 23 23 23 23 22 21 21 21 22 24 26 27 27 27 26 28 30 30 30 30 30 29 28 27
32 30 33 34 35 35 35 35 33 33 31 29 27 26 26 26 26 26 27 27 27 26 25 24 23 22 22 23 24 26 26 27 27 26 25 28 30 30 30 30 30 30 28
39 37 35 35 34 34 34 35 34 33 31 29 28 28 28 29 30 30 30 31 30 29 27 26 25 25 25 25 26 26 26 26 26 26 24 25 28 30 30 30 31 30 29

GEFSSE_500_meanwind_030.txt.gz
Wind_Speed
2 1 0 0 0 1 2 3 5 6 8 9 10 11 11 11 11 11 12 12 12 13 14 13 12 11 10 10 10 9 9 8 7 6 6 5 5 5 6 8 8 9 8
3 3 2 3 3 3 3 2 3 5 6 7 8 8 9 9 9 9 9 10 11 12 13 14 13 11 9 8 8 8 8 8 8 6 5 4 5 4 4 4 6 6 7
5 5 4 4 4 4 4 4 4 5 6 6 7 7 7 7 8 8 8 9 10 11 12 13 13 12 10 8 7 7 7 7 8 7 6 4 4 3 3 2 2 3 5
6 6 6 6 6 6 6 6 6 6 6 7 7 7 7 7 7 7 8 9 10 11 12 12 12 12 11 9 7 6 6 6 7 7 7 6 4 2 2 2 1 1 2
7 7 7 7 7 7 7 7 6 6 6 7 7 7 7 8 8 8 8 9 10 11 11 12 12 12 11 10 8 7 6 6 6 6 6 5 5 4 2 1 1 1 1
8 8 8 8 8 7 7 7 7 7 8 8 9 9 10 10 10 10 10 10 11 11 11 12 12 11 11 10 9 8 7 6 6 6 7 6 5 4 4 3 3 3 3
9 8 8 7 7 7 7 8 8 9 11 11 12 12 13 13 13 13 13 13 13 13 13 13 12 12 12 11 10 9 8 7 6 5 7 6 6 5 5 4 3 3 4
8 7 7 7 8 9 10 10 12 13 14 15 15 16 16 16 16 16 16 16 16 16 16 16 16 15 15 14 13 11 10 9 8 7 7 7 7 7 6 6 5 4 5
8 8 9 10 11 12 12 13 15 16 16 17 17 18 18 19 19 19 20 20 20 20 21 20 20 20 19 18 17 16 15 13 12 11 10 10 9 9 8 7 7 6 5
12 12 13 14 15 16 16 16 17 17 17 18 18 19 19 20 21 22 23 23 24 24 24 25 25 24 24 23 22 21 20 19 17 16 15 14 12 12 11 10 9 8 7
16 17 18 19 20 20 19 19 19 19 19 19 19 20 21 21 22 23 25 26 27 27 27 28 28 28 27 27 26 25 24 23 22 20 19 18 17 16 15 13 12 11 10
21 22 23 24 23 23 22 21 21 21 21 21 21 21 21 22 23 24 25 26 27 28 29 29 30 30 30 30 29 28 27 27 26 25 23 23 22 21 20 18 16 14 13
25 27 28 28 26 25 24 24 23 23 23 23 22 22 21 21 22 23 24 25 26 27 28 29 29 29 30 31 30 29 29 29 28 27 26 25 25 26 25 23 21 19 17
29 31 32 30 29 28 27 26 26 26 26 25 24 23 22 22 23 23 23 24 25 26 26 27 28 28 28 28 28 28 27 27 27 26 25 24 25 27 28 26 26 24 22
30 33 33 32 31 31 30 29 28 28 27 27 25 24 24 24 24 24 23 24 24 24 25 25 25 26 27 25 24 24 23 23 23 23 22 23 23 24 26 27 28 29 27
35 35 35 35 34 33 32 31 29 29 28 28 26 25 25 25 25 24 23 23 24 24 24 24 24 23 22 21 20 20 20 20 20 21 21 21 22 23 24 25 27 29 30
39 39 39 40 39 37 33 32 31 31 30 28 27 26 26 25 24 23 22 22 22 23 23 23 23 22 20 19 19 19 18 18 19 19 20 21 21 22 24 24 26 28 29
44 44 45 44 43 42 37 32 33 32 30 28 27 26 26 25 24 22 22 22 22 22 22 22 21 20 18 17 16 16 16 17 18 18 19 20 21 22 24 26 26 27 28
46 46 46 45 43 39 38 35 32 31 29 28 27 25 25 25 24 22 22 21 21 21 21 20 19 18 17 16 15 15 14 15 16 17 18 20 21 22 24 26 27 28 28
45 47 44 41 39 34 32 31 30 29 28 26 25 24 25 25 24 23 22 21 21 20 20 19 18 17 16 15 14 13 13 13 14 16 17 19 21 22 24 26 27 28 29
45 45 44 43 39 27 25 26 28 28 26 24 24 24 24 24 23 23 22 22 21 20 19 18 18 17 16 15 14 13 13 13 13 15 17 18 20 22 24 25 27 29 30
44 46 45 41 31 21 21 23 25 24 23 24 23 23 23 23 23 23 23 23 22 21 20 19 19 18 18 17 15 15 14 14 13 15 16 18 20 22 24 26 27 29 31
42 42 40 37 31 27 24 21 22 23 22 23 23 22 22 22 23 23 23 23 23 22 21 21 20 20 20 19 17 16 15 15 15 17 17 18 20 22 23 25 27 29 31
42 41 40 36 31 29 26 22 21 21 22 22 21 21 22 23 23 23 24 24 24 24 24 23 23 23 22 22 20 18 17 16 16 19 20 19 20 21 23 24 25 27 29
43 43 41 37 33 30 28 26 24 23 23 24 24 23 23 23 24 25 26 26 27 27 27 27 26 25 24 24 23 21 20 18 17 17 20 21 21 21 22 23 24 26 28
45 45 43 41 39 36 34 32 31 30 30 30 30 29 27 26 27 27 27 28 29 30 31 30 29 28 27 26 25 24 22 21 20 18 19 22 22 22 21 21 22 24 26

GEFSSE_500_meanwind_036.txt.gz
Wind_Speed
8 8 8 7 8 8 7 6 4 4 4 5 5 6 7 7 7 8 8 9 10 11 12 12 11 9 7 6 6 7 7 7 6 6 6 7 7 6 6 6 6 6 6
9 10 10 10 10 9 9 8 6 5 3 3 3 3 4 5 5 5 6 7 8 9 10 11 11 10 9 6 5 5 5 5 6 5 5 5 5 4 4 4 4 5 6
10 11 11 11 11 10 10 9 8 6 5 4 3 2 2 3 3 4 5 5 6 7 8 9 10 10 9 7 5 3 3 3 4 4 4 3 3 3 3 3 3 3 4
10 11 12 12 12 11 10 10 9 8 6 5 4 3 3 4 4 5 6 6 6 6 7 7 8 9 8 7 5 4 2 1 1 2 2 3 2 2 3 3 3 3 3
12 13 14 13 13 12 11 10 10 9 8 7 7 6 6 7 7 7 8 8 8 8 8 7 7 7 7 6 5 5 4 2 1 1 1 1 2 2 3 4 4 3 3
12 13 14 14 13 12 11 10 10 10 10 10 10 10 11 11 11 11 11 12 12 11 11 10 9 8 8 7 6 5 5 4 3 2 3 3 2 2 3 3 4 4 4
12 13 13 12 11 11 11 11 12 12 13 13 13 14 15 15 15 15 15 15 15 15 15 14 13 12 11 10 9 8 7 7 5 4 4 4 4 4 4 4 4 4 5
11 12 12 12 12 12 13 13 14 14 15 16 16 17 17 18 18 19 19 19 19 19 18 18 18 17 16 15 13 12 11 11 10 8 7 6 6 6 6 6 6 5 5
12 13 14 14 15 15 16 16 16 17 17 17 18 18 19 20 21 21 21 21 21 22 22 22 22 21 21 19 18 17 16 15 14 13 12 10 9 8 8 8 9 8 7
14 15 16 17 18 19 20 20 20 20 20 20 20 20 20 21 22 23 23 23 24 24 24 25 25 25 25 24 23 22 20 19 18 17 16 15 13 13 12 11 11 11 10
17 18 19 20 21 23 23 24 24 24 24 24 23 22 22 22 22 23 24 24 25 25 25 26 26 27 27 26 25 25 24 23 22 21 20 19 18 17 16 15 14 14 13
20 22 23 24 25 26 28 28 29 29 29 28 27 25 24 24 23 23 24 24 25 25 25 25 26 27 27 27 26 26 25 25 24 23 22 22 21 20 19 19 19 18 16
23 25 27 28 29 30 32 32 33 34 33 32 30 29 27 25 24 24 25 25 25 25 25 25 26 26 26 27 26 25 25 24 24 24 24 23 23 23 22 21 21 22 21
26 28 29 31 32 33 35 36 37 35 35 35 35 32 30 28 26 26 26 26 26 26 26 26 26 26 25 25 24 23 23 23 22 22 22 22 22 22 22 23 23 24 24
29 30 31 33 34 34 36 36 37 37 37 38 38 36 33 30 28 28 27 27 27 26 26 27 27 26 25 25 24 23 22 21 21 20 21 21 21 20 21 22 23 24 26
30 32 33 35 37 37 37 38 37 37 40 42 40 38 35 33 31 29 28 27 27 27 27 27 27 27 26 25 25 23 22 21 21 21 20 19 19 19 20 20 21 23 25
32 33 36 38 37 38 39 39 38 39 38 40 42 42 39 37 33 31 29 28 27 27 27 27 27 27 27 25 25 24 22 21 20 21 19 18 18 18 19 21 21 22 23
35 36 39 40 38 38 39 38 39 39 39 39 41 42 39 37 34 31 29 28 27 26 26 27 27 27 26 25 24 23 21 20 19 18 17 16 17 17 18 19 20 22 23
38 39 40 40 38 38 39 39 39 40 37 37 37 38 38 36 32 30 30 29 26 25 25 26 26 26 25 25 24 23 22 20 19 17 16 15 15 16 16 17 19 20 21
39 40 40 40 38 38 39 40 39 38 34 31 31 34 33 34 31 30 29 28 27 25 25 25 25 24 24 24 24 23 22 21 19 17 16 15 14 14 15 16 17 19 20
40 40 39 39 38 38 39 39 38 36 33 26 25 29 30 31 31 30 30 29 28 26 25 25 24 24 24 24 24 23 22 21 19 18 16 14 14 14 14 15 16 17 19
41 40 40 39 40 40 40 39 38 36 33 26 23 24 25 29 30 30 29 29 28 27 27 26 25 25 24 24 24 23 22 22 20 19 17 16 14 14 14 14 15 17 18
40 41 41 41 42 42 41 40 38 35 32 28 26 25 24 25 26 28 29 29 28 28 28 28 27 26 26 25 25 24 23 23 22 21 19 17 16 15 15 15 16 17 18
40 41 43 43 44 43 42 41 39 37 34 31 29 28 27 27 28 28 29 29 29 29 29 29 29 28 28 27 26 26 25 25 23 22 21 19 18 17 16 16 16 17 18
39 41 43 44 45 45 45 44 42 39 37 35 33 32 30 30 30 32 32 31 31 31 31 31 31 31 31 30 29 28 27 26 26 25 23 22 20 19 18 18 18 18 18
40 42 44 45 46 46 46 46 45 43 41 40 39 38 37 36 35 35 36 35 34 33 33 33 33 34 33 33 32 31 30 28 28 27 26 24 23 21 20 20 19 19 19

GEFSSE_500_meanwind_042.txt.gz
Wind_Speed
5 5 5 5 6 6 7 7 8 8 8 7 6 5 3 2 2 3 4 5 6 7 8 8 7 6 5 4 3 3 3 3 4 3 4 5 5 6 6 7 7 6 6
6 6 6 6 6 7 7 8 9 9 9 8 7 6 5 4 3 3 3 3 4 5 5 6 6 6 5 4 3 2 1 2 2 2 2 3 4 4 4 5 5 5 5
6 6 6 6 6 6 7 8 9 9 9 8 8 7 7 6 6 5 5 5 4 4 4 4 5 5 5 4 3 2 1 1 1 1 1 1 2 3 3 3 4 4 5
6 6 6 6 7 7 7 8 9 9 9 9 9 9 9 8 8 8 8 7 7 6 5 4 4 4 5 4 4 3 2 2 2 1 1 1 0 1 1 2 3 4 5
6 6 6 6 7 7 7 8 8 9 9 10 10 10 10 11 11 11 11 10 10 10 9 7 6 5 5 5 4 3 3 3 3 3 3 3 2 2 2 3 3 4 5
7 7 7 6 7 7 8 8 8 9 10 11 12 12 12 13 13 13 13 13 13 13 12 11 10 9 8 7 6 5 4 4 4 4 4 4 4 4 4 5 5 5 6
8 8 7 7 8 9 9 10 11 12 13 14 14 15 15 15 16 16 16 16 16 16 15 14 14 13 11 10 10 9 8 7 7 6 6 6 6 7 7 7 7 7 7
10 10 10 10 11 11 12 13 14 15 16 17 17 18 18 19 19 19 19 19 19 19 18 18 17 16 15 14 14 13 12 11 11 10 9 9 9 9 9 10 9 9 9
11 12 12 13 14 16 17 18 19 19 20 21 21 21 22 23 23 23 23 23 23 22 21 21 20 20 19 18 18 17 17 16 15 14 14 13 12 12 12 12 12 12 12
14 15 16 17 19 20 20 21 22 24 24 25 26 26 26 27 27 28 28 27 26 25 24 23 23 23 22 22 21 21 20 20 20 19 18 17 17 16 15 15 15 15 15
17 18 19 20 21 22 23 25 26 27 28 29 30 30 31 30 30 31 31 31 30 28 27 26 25 24 24 24 24 24 23 22 22 22 22 21 21 20 19 19 18 17 16
21 22 23 23 24 25 27 29 29 30 30 31 32 33 33 34 34 34 33 33 33 31 30 29 27 26 25 25 25 25 24 24 24 24 24 23 24 24 23 22 21 19 19
24 25 26 27 28 28 29 30 31 31 31 32 34 36 36 36 37 37 36 36 36 34 33 31 30 28 27 26 26 24 23 22 23 23 23 23 24 25 25 25 24 23 22
26 27 28 29 29 30 31 31 31 32 33 33 32 34 37 38 38 39 39 39 38 37 35 34 32 31 29 28 27 25 23 22 22 22 22 22 22 24 25 25 26 25 25
29 29 30 31 31 32 32 33 33 33 33 35 35 35 36 38 39 39 39 41 40 39 38 36 35 33 31 29 27 25 24 23 22 22 22 21 21 23 24 24 26 25 25
30 31 32 33 34 34 35 36 35 35 34 35 36 36 37 38 39 39 40 41 42 41 40 38 37 35 32 31 28 26 24 24 24 23 22 21 21 22 23 24 25 25 25
31 33 34 36 36 37 38 37 37 36 36 36 36 37 39 39 39 40 42 42 43 43 41 40 38 37 35 32 30 28 26 24 24 23 23 21 21 21 22 23 24 24 24
34 35 37 38 39 40 40 39 38 36 35 34 35 36 35 35 37 40 42 42 43 43 42 41 39 38 35 33 31 29 28 26 25 25 23 22 21 20 21 22 22 22 23
35 38 39 40 41 42 40 38 38 35 34 34 35 35 33 33 34 37 39 40 41 42 42 41 40 38 36 34 32 30 29 27 26 26 24 23 21 20 20 20 21 21 21
37 39 40 42 42 41 40 39 38 36 36 36 36 35 34 33 34 35 37 38 40 41 41 40 40 38 36 34 33 31 30 28 27 26 25 24 21 20 19 19 20 20 20
38 39 39 40 40 39 40 40 39 38 38 38 37 36 35 34 34 34 35 36 38 39 39 38 38 37 35 34 33 31 30 29 28 26 26 25 23 21 20 19 19 18 18
37 37 37 37 38 39 40 41 41 41 41 40 39 38 37 36 34 32 32 34 35 37 38 39 37 37 35 34 34 33 30 29 28 28 27 26 24 22 21 19 18 17 16
34 35 36 38 39 40 41 41 42 42 43 43 42 41 40 38 36 33 32 32 34 36 37 37 38 36 35 35 34 33 31 30 29 29 28 27 25 24 22 20 18 16 15
35 37 38 40 42 43 44 44 44 45 45 45 44 43 42 40 38 36 34 33 33 35 36 38 38 36 35 35 35 33 33 31 30 30 29 28 27 25 24 22 20 17 16
37 39 41 42 44 45 46 46 47 47 47 47 47 46 44 43 41 39 38 36 34 34 36 37 37 36 36 36 35 34 34 33 33 31 31 30 29 28 26 24 22 19 17
38 40 42 43 44 46 47 48 48 49 49 49 49 49 47 46 44 43 42 41 40 39 38 39 39 37 37 37 37 36 36 36 35 34 33 32 31 30 28 26 24 21 18

GEFSSE_500_meanwind_048.txt.gz
Wind_Speed
10 9 8 8 8 8 7 8 9 10 11 11 12 12 12 11 10 10 10 10 10 9 9 9 9 9 8 7 7 6 5 5 5 5 5 5 5 5 6 6 7 7 7
10 9 9 8 8 7 7 8 8 9 10 11 11 12 12 12 11 11 11 11 10 10 10 9 9 9 8 8 7 6 6 5 4 4 4 3 3 4 5 5 5 6 6
10 9 8 8 8 8 7 7 8 8 9 9 10 11 11 12 12 12 13 12 12 11 11 10 9 8 8 7 7 6 6 5 4 4 3 2 2 2 3 4 4 5 5
10 9 9 8 8 8 7 7 7 8 8 9 10 10 11 12 12 13 13 13 13 13 12 12 11 9 8 7 7 7 6 5 5 4 3 2 1 1 2 3 3 3 4
10 9 9 8 8 7 7 7 7 8 9 10 10 11 12 12 13 14 14 14 14 14 14 13 12 11 10 9 8 8 7 6 5 5 4 3 2 1 1 1 2 3 3
10 9 9 9 9 8 8 9 10 10 11 12 12 13 13 14 14 15 15 15 16 16 16 15 14 14 13 12 11 10 9 8 7 6 5 5 3 3 2 2 2 3 3
11 11 11 11 11 11 11 11 12 13 14 15 16 16 16 16 17 17 17 17 18 18 18 17 17 16 16 16 14 13 13 12 10 9 7 7 6 5 4 3 3 4 4
13 13 12 12 13 13 14 15 16 16 17 19 19 20 20 20 20 20 20 20 20 20 20 19 19 19 18 18 18 17 16 15 14 13 11 10 9 7 7 6 6 5 6
15 15 15 15 15 16 17 18 19 20 21 22 23 24 24 24 24 24 23 23 23 23 22 22 21 21 21 21 20 20 20 19 18 17 15 14 13 11 10 9 8 8 8
17 17 18 18 19 20 21 21 22 23 24 24 25 26 26 26 26 26 26 27 26 26 25 24 24 23 23 22 23 23 23 22 22 20 19 18 17 16 14 13 12 11 11
20 20 20 21 22 23 24 24 24 25 25 26 27 27 27 28 29 29 29 29 29 29 28 27 26 26 25 25 25 25 25 25 25 24 23 21 21 20 19 17 16 15 14
23 23 23 23 24 25 25 26 26 26 27 28 28 28 29 30 30 31 31 31 31 31 30 30 29 28 28 28 27 27 26 27 27 27 26 24 24 23 22 21 20 20 18
25 25 26 26 26 27 27 27 28 29 29 30 31 31 32 32 32 33 32 32 32 33 33 33 32 31 31 30 30 29 29 29 29 29 27 25 26 25 24 23 23 23 22
27 29 30 29 29 30 30 31 32 32 32 33 34 34 34 34 35 35 34 34 33 33 35 35 35 33 33 32 32 31 31 30 29 30 28 25 26 25 24 24 24 24 24
30 31 32 31 31 32 33 35 35 36 35 36 36 37 38 37 36 36 35 36 36 35 36 37 37 36 34 34 34 32 31 31 29 29 28 27 26 26 25 24 23 24 25
32 33 34 34 34 35 36 37 38 39 39 39 40 40 39 38 38 37 35 36 37 37 38 37 39 38 36 35 34 33 32 32 30 28 28 27 27 26 24 23 24 24 24
33 34 36 36 37 37 39 40 41 41 42 42 42 42 41 40 39 38 37 36 36 37 39 39 38 38 36 35 34 35 34 33 31 30 29 28 28 27 25 24 24 23 23
33 34 36 37 38 39 40 42 44 43 44 44 44 43 42 42 40 39 37 37 37 36 37 38 39 38 37 37 36 36 36 34 33 31 30 29 28 27 25 24 24 23 23
32 34 36 38 39 40 42 43 44 45 45 44 43 42 41 41 40 39 39 38 38 36 36 37 37 38 38 38 37 36 36 34 33 32 31 31 29 28 25 24 24 23 22
32 34 36 38 40 41 42 43 44 44 44 43 42 42 41 41 41 41 40 40 39 37 36 36 36 36 36 37 37 36 35 34 33 32 31 31 30 29 26 24 23 22 21
33 35 36 38 40 42 43 43 44 43 43 44 43 43 42 42 42 42 41 40 40 38 38 37 36 35 35 35 36 35 35 35 33 33 32 31 30 29 28 26 23 23 22
33 35 36 37 39 41 42 42 43 43 44 45 45 44 43 43 43 43 42 42 42 41 39 36 36 36 35 35 34 36 37 35 33 33 32 31 30 29 28 27 25 24 22
32 33 35 36 38 40 41 42 42 43 43 44 44 44 43 43 43 44 44 43 43 42 41 39 37 36 35 35 36 37 36 35 33 32 32 31 30 29 29 28 26 25 23
32 33 35 36 38 39 41 42 43 43 44 44 44 44 43 43 43 43 44 44 43 43 42 40 39 38 36 35 36 37 37 36 35 33 33 32 31 31 31 29 27 26 24
32 34 35 36 38 39 40 42 43 44 44 44 44 44 44 44 44 44 44 44 43 43 41 40 39 38 38 37 36 37 38 37 36 35 33 32 33 33 31 30 28 27 25
33 35 36 37 38 39 40 41 42 43 43 43 44 44 44 44 44 43 42 42 42 42 41 41 40 40 39 38 37 37 37 37 37 37 35 34 34 34 33 32 30 29 28

GEFSSE_500_meanwind_054.txt.gz
Wind_Speed
7 6 6 6 5 5 5 5 5 5 6 6 7 7 7 8 9 9 10 10 10 11 11 12 12 13 13 12 11 10 8 7 7 7 6 6 5 5 6 6 7 8 8
6 6 6 5 5 4 4 5 5 5 5 6 6 7 7 7 8 8 9 9 9 10 10 11 11 11 12 12 11 10 9 7 6 5 5 4 4 4 4 5 6 7 8
5 6 5 5 5 5 5 5 5 5 5 6 6 6 7 7 7 8 8 8 8 9 9 10 10 10 10 11 10 10 9 8 6 5 4 3 3 3 3 4 4 6 7
6 6 6 5 5 5 5 5 5 5 6 6 6 7 7 8 8 8 8 9 9 9 9 9 9 9 9 10 10 10 9 8 7 5 3 2 1 1 2 3 4 5 6
6 6 6 6 6 6 6 6 6 6 6 7 7 8 8 9 10 10 10 10 10 10 10 10 10 10 10 10 10 10 9 8 8 6 4 2 1 1 2 2 3 4 5
7 7 6 6 6 6 7 7 7 8 8 9 9 10 10 11 11 12 12 12 12 12 12 12 12 12 12 11 11 11 10 9 9 7 5 4 2 2 3 3 4 4 5
7 7 7 7 7 8 8 9 9 10 10 11 11 12 13 14 14 14 15 15 15 15 15 14 14 14 14 14 13 12 12 11 10 9 8 6 5 4 3 4 5 5 5
8 7 8 8 9 10 10 11 11 12 13 13 13 14 14 15 16 17 17 17 17 18 17 17 17 16 16 16 16 15 14 13 12 11 10 9 7 6 5 5 6 6 6
9 9 9 10 10 11 12 14 14 15 15 15 16 16 16 17 17 18 18 19 19 19 20 19 19 20 19 19 19 18 17 16 15 14 13 12 11 9 8 7 7 7 8
11 10 11 12 13 14 15 16 16 17 17 17 17 18 18 19 19 19 20 20 21 21 21 22 22 22 22 21 21 20 20 19 18 17 16 15 14 13 12 11 10 9 9
13 13 14 15 16 17 17 17 18 19 19 19 20 20 21 21 22 22 23 23 24 24 24 24 24 24 24 24 24 23 23 23 22 20 19 19 18 17 16 14 14 13 11
15 16 17 18 18 19 20 21 21 21 22 22 23 23 23 24 25 25 26 26 26 25 25 25 25 25 25 25 26 26 26 26 25 24 22 22 21 20 19 18 17 16 15
18 18 19 21 22 23 24 24 24 24 24 25 25 26 26 27 28 28 28 28 29 29 28 27 26 25 25 26 27 28 29 28 28 27 25 24 23 23 22 21 20 19 19
22 22 22 24 25 26 26 26 27 27 27 27 28 29 30 31 31 31 31 31 31 31 30 29 28 28 28 28 27 28 29 30 30 30 28 26 26 25 24 23 22 22 22
25 25 25 25 27 28 28 28 29 30 30 30 31 32 32 33 34 34 34 33 33 32 31 31 30 30 29 28 28 28 29 30 31 32 31 29 27 27 26 25 24 23 22
27 27 28 28 28 29 30 31 32 33 33 34 34 34 35 35 36 36 36 35 34 33 33 33 32 31 30 29 29 28 29 31 32 33 33 31 29 28 27 27 26 25 24
27 28 29 29 30 30 32 33 34 35 35 36 37 37 37 37 37 37 35 35 35 34 35 34 33 33 32 31 30 31 29 29 31 32 33 32 31 30 28 28 28 27 25
26 27 28 29 30 32 33 35 36 37 37 37 38 39 39 39 38 38 36 35 35 36 36 35 34 34 33 32 31 31 30 30 29 31 31 31 32 31 30 29 29 28 27
26 27 29 30 31 33 34 36 37 38 38 39 39 40 40 40 39 38 37 37 37 36 36 36 35 35 34 33 32 31 30 29 29 30 31 31 31 31 31 31 30 29 28
26 28 29 31 32 34 35 36 37 37 38 39 40 40 40 40 40 39 39 39 39 38 38 37 36 36 35 35 33 32 31 30 29 30 31 33 31 32 32 31 31 31 29
25 27 29 30 31 33 34 35 36 37 38 39 39 39 39 39 39 39 39 39 39 38 38 37 37 37 37 35 34 33 32 32 30 30 31 33 32 32 32 33 32 32 32
23 25 27 28 30 32 34 35 36 37 37 38 38 38 38 38 38 38 38 38 39 38 38 38 37 37 37 37 36 34 32 31 30 30 31 32 32 33 33 32 33 33 33
22 24 26 28 30 32 33 35 36 36 37 38 38 37 37 37 37 37 37 37 37 37 37 38 38 37 37 37 36 34 32 31 29 29 30 32 32 33 34 34 34 34 35
21 23 25 27 29 31 32 34 35 35 36 37 37 37 37 37 37 36 36 36 36 36 36 37 37 37 37 37 36 36 34 33 31 30 31 32 33 33 34 34 34 34 34
22 23 26 28 30 31 32 33 34 35 36 36 37 37 37 38 37 36 35 34 34 34 35 35 35 35 35 35 35 36 35 35 33 32 31 32 33 33 35 35 35 35 35
24 26 28 29 31 32 32 33 34 35 36 37 37 38 37 38 38 37 36 35 35 34 34 35 34 34 34 34 34 35 35 35 34 34 33 33 33 33 35 36 37 36 36

GEFSSE_500_meanwind_060.txt.gz
Wind_Speed
7 7 6 6 5 5 5 5 5 5 5 5 5 6 6 6 6 6 7 7 7 7 8 8 9 10 11 12 12 11 10 9 7 6 6 6 6 6 5 5 5 5 6
7 6 7 6 5 5 5 5 5 5 4 4 4 4 4 5 5 5 5 5 6 6 6 7 7 8 8 9 10 10 9 8 7 6 5 5 5 5 4 4 4 5 6
7 6 6 5 5 5 5 4 4 4 4 4 3 4 4 4 5 5 5 6 6 6 6 6 6 6 7 7 7 8 8 7 6 5 4 4 4 4 4 4 4 5 6
7 6 5 5 4 4 5 4 4 4 4 4 4 4 5 5 5 6 7 7 8 8 8 8 7 7 7 7 6 6 6 5 5 4 3 2 2 3 3 3 4 4 5
7 6 5 4 4 4 4 5 5 5 5 5 5 6 6 7 8 8 9 9 10 10 10 10 10 9 8 8 7 6 5 4 3 2 1 1 1 2 3 3 4 4 5
8 8 6 5 5 5 4 5 5 6 6 6 7 7 8 8 9 10 10 11 12 12 12 12 12 11 11 10 10 9 8 6 4 3 1 2 2 3 3 3 4 4 5
8 8 7 6 6 5 5 6 6 7 8 8 8 9 9 9 10 11 12 12 13 14 14 14 14 14 14 13 13 12 11 9 7 6 5 4 4 4 4 4 4 5 6
9 9 8 8 7 7 7 8 8 9 9 9 10 10 11 11 12 12 13 14 14 15 15 16 16 16 16 16 16 15 15 13 11 10 8 7 6 6 6 6 6 6 6
11 10 10 10 9 9 9 10 10 11 11 12 12 12 12 13 13 14 14 15 16 17 17 18 19 18 18 19 19 18 18 17 15 14 12 11 10 9 9 8 8 8 7
13 12 12 12 12 12 12 12 13 14 14 15 15 15 15 15 16 16 17 17 18 19 20 20 21 21 21 21 21 20 20 20 19 18 17 15 14 12 11 11 10 10 9
14 14 15 15 15 16 15 16 17 17 17 17 17 17 18 18 19 19 20 20 20 21 22 22 23 23 23 23 23 22 22 22 22 22 21 19 18 16 15 14 14 13 12
17 18 18 18 19 20 20 20 21 21 20 20 20 20 21 21 22 22 23 24 23 23 24 25 25 25 25 25 24 24 24 24 24 24 24 23 22 20 19 18 17 16 15
20 20 20 20 21 22 23 24 25 26 24 23 23 23 24 24 24 25 26 26 26 27 26 27 27 28 27 27 26 26 25 25 25 26 26 26 25 24 23 21 20 20 18
21 21 22 22 23 25 26 26 26 26 25 25 25 25 26 27 27 28 28 29 29 29 29 29 30 30 30 29 28 27 25 25 25 27 28 27 27 27 26 24 23 23 21
21 21 23 24 24 24 24 24 25 25 25 25 26 27 28 28 28 29 30 30 31 32 32 31 32 31 31 30 30 28 27 26 25 24 27 28 28 29 28 28 27 25 25
20 21 22 23 23 24 24 25 25 25 26 26 26 28 28 29 29 30 30 31 33 33 32 32 32 32 31 30 30 30 28 27 25 25 25 27 28 30 30 30 30 28 27
19 20 21 22 24 25 25 26 27 27 26 26 27 28 28 29 30 31 32 32 33 33 33 33 32 31 31 31 31 30 30 29 27 26 26 27 27 30 31 32 32 31 30
19 19 21 23 23 24 25 26 27 27 27 28 28 29 30 30 31 32 32 33 33 34 34 34 33 32 32 32 31 31 31 30 29 28 28 28 28 29 31 32 33 34 32
19 20 21 22 22 23 24 26 27 27 28 29 30 30 31 32 32 33 33 33 33 34 34 34 34 33 33 33 32 32 31 31 30 29 29 29 28 28 30 32 33 35 34
19 19 20 21 23 24 25 26 27 28 29 30 31 31 32 33 33 34 34 34 34 34 34 34 34 34 34 34 33 33 32 31 31 31 31 30 29 29 30 32 33 35 36
18 19 21 22 23 25 26 27 28 29 30 31 32 32 33 33 34 34 34 34 34 34 34 34 34 34 35 34 34 33 33 32 32 32 32 31 30 30 31 32 34 35 36
18 19 21 23 24 26 27 29 30 31 32 33 33 33 33 33 33 33 33 34 34 34 34 34 34 35 35 35 34 34 33 33 34 33 33 33 32 31 31 32 34 35 36
18 20 22 24 26 27 29 30 31 32 33 33 33 33 33 32 32 32 32 33 33 33 34 34 34 34 35 35 35 34 34 34 34 35 34 34 34 32 32 33 34 36 36
19 21 23 25 27 28 30 30 31 31 32 32 33 33 33 33 32 32 33 33 33 34 34 34 34 34 34 35 35 35 35 34 35 35 35 35 35 34 34 34 35 37 38
20 22 23 25 26 27 28 29 29 30 30 30 31 31 32 32 32 32 32 33 33 34 34 35 34 34 35 35 36 36 35 35 35 35 35 35 35 35 35 35 35 37 39
20 22 23 24 25 26 27 28 28 28 29 29 30 30 31 32 33 33 33 33 33 34 34 35 35 35 35 35 36 36 36 35 35 35 35 36 37 36 36 36 36 38 39

GEFSSE_500_meanwind_066.txt.gz
Wind_Speed
4 4 3 3 2 2 2 1 1 0 2 3 3 4 4 4 4 4 4 4 4 5 4 4 5 5 6 6 6 5 5 4 4 4 3 3 4 4 5 5 5 5 6
3 3 2 2 1 2 2 2 3 2 1 1 2 2 2 2 2 2 2 2 2 2 2 2 2 2 3 3 4 4 4 3 3 3 3 3 4 4 4 5 5 5 6
3 3 2 2 2 3 3 4 4 4 3 2 2 2 2 2 1 1 1 1 1 2 2 2 2 2 2 1 1 2 2 2 2 2 2 2 3 4 4 5 5 5 6
2 2 3 3 4 4 5 5 5 5 5 4 4 4 4 4 4 4 4 4 4 4 5 5 5 5 4 4 3 1 1 0 1 1 1 2 3 3 4 4 5 5 5
3 3 4 5 5 6 6 6 6 6 6 6 6 6 6 6 6 6 6 6 6 6 7 7 7 7 6 6 6 5 4 3 2 2 3 3 3 4 4 5 5 5 6
4 5 6 6 7 7 8 8 8 8 8 8 8 8 8 8 8 8 8 8 8 8 8 8 9 9 8 8 8 8 7 6 5 5 4 4 5 5 5 6 6 6 6
6 7 7 8 9 9 9 9 10 10 10 10 9 10 10 10 10 10 10 10 10 10 10 10 10 10 10 10 10 10 10 9 9 8 7 7 6 6 7 7 7 8 8
7 9 9 10 11 11 11 11 12 12 12 12 12 12 11 11 11 11 11 12 11 11 11 11 12 12 12 12 12 12 12 12 12 11 10 10 9 9 9 9 9 9 9
10 11 12 13 13 13 14 14 14 15 15 15 15 15 15 15 14 14 14 14 14 14 13 13 14 14 14 14 14 14 14 15 15 15 14 13 13 12 12 11 11 11 11
12 13 14 15 16 16 17 17 17 17 18 18 18 19 19 19 18 18 17 16 16 16 16 16 16 16 15 15 15 16 16 16 17 17 17 17 16 16 15 14 14 14 13
15 16 17 17 18 19 19 20 20 20 21 21 21 22 22 23 22 20 20 19 19 20 19 19 19 18 18 17 17 17 17 17 18 19 19 19 19 19 19 18 17 17 16
18 18 19 20 21 21 22 22 23 23 23 24 24 24 24 25 24 23 22 22 22 22 22 22 21 20 20 20 19 18 18 18 18 20 20 21 21 21 22 21 20 19 19
20 20 20 21 22 23 24 24 25 25 26 26 26 27 28 26 25 26 25 24 24 24 24 23 24 22 21 22 22 21 20 20 20 20 21 22 23 23 24 24 24 23 22
20 20 20 21 22 22 23 23 23 25 25 25 26 26 26 27 25 25 25 25 25 25 24 25 26 24 23 23 24 24 23 21 21 20 20 23 24 25 26 27 27 27 26
20 20 20 20 21 21 21 21 21 21 21 22 23 23 23 25 25 24 25 26 26 26 25 25 26 25 25 25 25 25 23 22 22 22 21 22 24 25 27 28 29 29 29
20 19 19 19 19 19 19 19 19 20 20 20 21 22 22 22 23 25 24 26 27 27 27 27 27 27 27 26 25 25 24 24 23 24 24 23 24 26 27 29 31 31 31
18 17 18 19 20 20 18 18 19 19 19 20 20 21 22 23 24 25 25 25 26 27 26 27 27 27 27 27 27 26 26 25 25 26 26 25 25 27 28 29 31 32 33
16 16 17 18 18 18 17 18 18 19 20 20 21 22 22 23 23 24 24 24 25 26 26 27 28 28 29 28 28 28 28 27 27 27 27 27 26 27 29 30 31 32 34
15 15 15 16 16 16 17 17 18 19 21 22 22 22 22 23 23 24 24 25 25 26 26 27 27 28 29 29 29 29 29 29 29 29 29 29 28 28 30 30 31 32 34
13 14 14 14 14 15 16 17 18 20 21 22 22 23 23 23 23 24 25 25 26 26 26 27 28 28 29 29 30 30 31 30 31 31 31 31 30 30 32 33 32 32 34
11 11 12 12 13 15 16 18 20 21 22 23 23 24 24 24 24 24 25 25 26 26 27 27 27 28 29 29 30 30 31 31 32 32 33 33 33 33 33 33 34 34 34
9 10 11 12 14 16 18 20 21 23 24 24 24 24 24 24 24 24 24 25 25 26 27 27 28 28 29 29 30 30 31 32 33 33 34 34 34 34 34 34 34 34 36
10 11 12 15 17 19 21 22 23 24 25 25 25 24 24 24 24 24 24 25 25 26 27 28 28 29 29 30 30 31 32 33 33 34 34 35 35 36 36 35 35 35 37
10 12 14 16 19 20 22 23 23 24 24 24 24 24 23 23 23 23 23 24 25 26 27 28 28 29 30 30 31 31 32 33 34 34 35 36 36 36 37 37 36 36 37
12 14 16 18 20 21 22 22 22 23 23 23 23 23 23 22 22 22 23 24 25 26 27 28 29 29 30 31 31 32 33 33 34 35 36 37 37 37 38 38 39 39 40
14 15 17 19 20 21 21 21 21 22 22 22 22 22 22 23 23 23 24 25 26 27 27 28 29 30 30 31 32 32 33 34 35 36 37 38 38 39 39 39 39 40 41

GEFSSE_500_meanwind_072.txt.gz
Wind_Speed
2 2 1 1 1 1 2 3 4 4 5 5 4 4 4 3 3 3 2 2 2 3 3 3 4 4 5 5 5 5 5 5 5 4 4 3 3 3 4 4 5 5 6
3 3 2 1 1 2 3 4 5 6 6 6 6 5 5 5 5 4 4 4 4 4 4 4 4 4 4 5 4 5 5 5 4 4 3 3 2 2 3 3 5 4 5
4 4 4 3 3 4 4 5 6 7 7 7 7 7 7 7 7 7 7 7 7 6 6 6 6 5 5 5 5 5 5 5 4 3 3 2 1 1 2 3 4 4 5
5 5 4 5 5 5 6 7 7 8 8 8 8 9 9 9 9 9 9 9 9 9 9 8 8 7 7 6 6 6 5 5 5 4 3 2 1 0 1 3 4 4 5
5 5 5 6 6 7 8 8 9 9 9 9 10 10 11 11 11 11 11 11 11 11 10 10 9 9 9 8 8 8 7 7 6 5 4 3 2 1 1 2 3 3 4
5 5 6 7 8 8 9 10 10 11 11 11 11 12 12 13 13 13 13 13 13 13 12 12 11 11 11 10 10 10 10 9 8 7 6 4 4 3 2 2 3 3 4
6 7 8 8 9 10 10 11 12 12 12 13 14 14 14 15 14 14 15 15 15 15 14 13 13 13 12 12 12 12 12 11 10 9 8 7 6 5 4 4 4 4 4
7 8 9 10 11 11 12 13 14 14 14 15 15 16 17 17 17 17 16 17 17 16 16 15 15 14 14 14 13 13 13 13 13 12 11 10 9 8 7 6 6 5 5
8 10 11 12 12 13 14 15 16 16 17 17 18 18 19 19 19 19 19 19 19 19 18 18 17 16 16 15 15 15 15 15 15 14 13 13 12 11 10 9 8 7 7
11 12 13 14 14 14 15 17 18 18 19 20 20 20 20 20 20 21 21 22 22 21 21 20 19 19 19 18 17 16 16 17 17 16 15 15 15 14 13 12 11 10 9
13 14 15 15 15 16 17 18 19 20 21 22 23 23 23 23 23 22 22 24 23 23 23 22 22 22 21 21 20 19 18 19 18 17 16 16 17 17 16 15 14 13 12
16 16 16 16 16 17 18 19 20 21 22 21 22 22 24 25 24 23 23 24 24 24 23 23 23 24 23 23 23 21 21 21 20 19 18 18 19 19 18 18 18 17 16
18 18 17 16 17 18 19 20 20 21 21 20 19 20 21 23 22 22 22 21 22 23 23 23 24 24 24 23 22 21 21 21 21 21 20 20 20 21 21 21 21 20 19
18 18 18 17 17 18 19 19 19 20 20 19 20 21 21 21 21 21 21 21 22 22 23 24 24 23 24 23 22 21 21 21 21 21 21 21 21 21 21 23 23 23 22
18 18 19 18 18 18 18 18 19 19 19 19 19 19 20 20 20 21 21 21 21 21 21 22 23 24 23 22 22 22 21 21 21 20 21 21 21 21 22 23 23 23 24
18 18 18 17 17 17 18 17 18 18 18 18 18 18 19 19 19 20 21 21 21 20 20 22 23 23 23 23 22 22 21 22 22 21 21 21 22 22 23 25 25 25 25
16 16 16 15 15 15 16 17 17 18 17 18 18 18 19 20 20 21 21 21 21 21 21 22 23 23 23 23 23 23 23 23 23 23 23 22 23 23 23 25 26 26 27
15 15 14 13 14 14 15 16 17 17 17 17 18 19 20 21 21 22 22 22 23 23 23 23 23 23 23 23 23 23 23 23 24 24 25 25 25 25 26 25 26 28 29
14 14 13 13 13 13 14 15 16 17 17 18 18 19 20 21 22 22 22 22 23 23 23 23 23 23 24 24 24 24 23 24 24 25 26 27 27 27 27 27 27 28 30
12 12 12 13 13 13 14 15 16 16 17 18 18 19 20 21 21 22 22 21 22 22 22 23 23 23 24 24 24 25 25 25 25 26 26 27 28 28 28 28 29 29 30
11 11 11 11 12 12 13 15 16 16 17 18 18 19 20 20 20 21 21 21 21 21 21 22 23 23 24 24 24 25 26 26 27 27 27 27 28 29 29 30 30 30 30
11 10 10 11 12 13 14 15 16 17 17 18 18 18 19 20 20 20 20 21 21 21 21 21 22 23 24 24 25 26 26 27 27 28 28 29 29 30 30 31 31 31 32
8 9 10 11 12 12 13 15 16 17 17 18 18 18 19 19 19 20 20 20 21 21 21 21 21 22 23 24 24 25 26 27 28 29 29 30 30 31 31 32 32 32 33
8 9 9 10 11 12 14 16 17 17 18 19 19 19 19 19 20 20 21 21 21 21 22 22 22 23 23 24 24 25 26 27 28 29 30 31 31 31 32 32 33 33 33
6 7 8 10 11 13 15 16 17 19 19 20 20 21 21 21 21 22 22 23 23 23 24 24 24 24 24 25 26 26 27 28 28 29 30 32 32 32 33 33 34 34 35
7 8 9 11 13 14 16 17 18 20 21 21 22 22 23 23 23 23 23 24 25 25 25 26 26 26 27 27 27 28 28 29 29 30 31 32 33 34 34 34 35 35 36

GEFSSE_500_meanwind_078.txt.gz
Wind_Speed
0 0 1 2 2 2 2 2 2 3 4 5 5 6 6 7 7 7 7 7 7 7 7 8 7 7 7 6 6 7 7 7 7 7 6 5 5 4 4 5 6 6 7
2 1 1 1 2 1 1 0 1 3 4 4 5 6 6 7 8 8 8 8 8 8 8 8 8 8 7 7 6 6 6 6 6 6 5 4 4 4 4 5 5 5 6
3 2 2 2 2 1 1 1 2 3 4 5 5 6 7 8 8 9 9 9 9 9 9 9 9 9 8 7 7 6 6 6 5 5 5 4 3 3 3 4 4 5 6
3 3 3 2 2 2 2 2 2 3 4 5 6 7 8 8 9 10 10 10 10 10 11 11 10 10 9 8 8 7 6 6 5 5 4 3 2 2 2 3 4 5 6
3 3 3 3 3 2 2 2 3 4 4 5 6 7 8 9 10 11 11 11 12 12 12 12 11 11 10 10 9 8 7 6 6 5 4 3 2 0 1 2 3 4 5
3 3 3 3 2 2 3 3 4 4 5 6 7 9 10 10 11 12 12 13 13 13 13 13 13 12 12 11 10 10 9 8 7 6 5 4 3 2 2 2 3 4 5
3 3 3 3 3 3 3 4 5 6 7 8 9 10 11 12 12 13 14 14 14 14 14 15 14 14 13 12 12 11 10 10 9 7 7 6 5 5 4 4 4 4 5
4 3 3 3 4 4 5 6 7 8 9 10 11 12 13 14 14 15 16 15 15 16 16 16 17 16 15 14 13 13 12 11 10 10 9 8 8 8 7 6 6 6 6
4 3 3 4 5 6 7 8 9 10 11 12 14 15 15 15 16 17 17 18 18 18 18 18 18 18 18 17 16 15 15 13 12 12 12 10 10 10 10 9 8 8 8
4 4 5 6 7 8 8 9 10 11 13 14 15 16 16 17 18 19 19 19 19 20 20 20 20 20 20 19 18 18 17 16 14 14 14 13 13 13 12 12 11 10 10
5 6 7 8 9 9 10 11 12 13 14 15 16 16 17 17 18 19 19 19 20 21 20 20 20 20 20 20 21 20 19 18 16 16 16 15 15 14 14 14 14 13 12
6 6 8 9 10 11 11 12 13 13 14 15 15 16 16 16 17 17 17 18 19 19 19 19 19 19 20 20 21 21 21 20 18 18 18 18 17 16 16 16 15 15 15
6 7 9 10 11 12 12 13 13 13 14 14 15 15 15 15 16 16 16 16 18 18 18 18 18 19 19 20 21 21 22 22 20 19 20 19 19 17 18 18 17 17 17
8 9 10 11 11 12 13 13 12 12 13 14 15 15 15 15 14 14 14 15 16 16 16 17 17 19 20 20 21 21 21 22 21 21 21 21 20 19 18 19 19 19 19
9 10 10 11 12 12 12 12 11 12 13 13 13 13 13 13 13 13 14 15 15 15 14 14 16 17 18 20 21 21 21 21 21 21 21 20 19 19 20 20 21 20 21
8 9 10 10 10 10 10 10 10 11 12 12 13 14 14 13 13 14 14 15 14 14 14 15 16 16 17 18 19 19 20 21 21 21 20 20 19 19 20 20 21 21 21
8 8 9 9 8 8 8 9 10 10 11 12 12 13 13 14 14 14 15 15 15 15 16 16 16 17 17 17 18 19 20 21 21 20 20 20 20 20 20 21 21 21 22
7 7 8 8 8 8 8 8 9 9 10 10 11 12 13 14 14 14 15 15 15 16 16 16 16 17 17 17 18 19 20 20 21 21 21 21 21 22 21 22 22 23 23
7 7 7 7 7 8 7 7 8 7 8 10 11 12 12 13 13 14 14 14 15 15 15 15 15 16 16 17 18 18 19 20 21 21 22 22 22 22 22 23 23 23 24
6 6 6 6 6 7 7 7 7 7 8 10 11 12 12 12 13 13 14 14 14 14 14 15 15 15 16 16 17 18 19 20 21 22 22 23 23 23 23 24 25 25 25
7 6 6 5 5 6 6 6 7 7 8 9 10 11 12 12 12 13 13 13 13 13 14 14 14 15 15 16 17 18 19 20 21 21 22 23 24 24 25 25 26 26 27
5 5 3 3 4 5 5 6 6 7 8 8 9 10 11 11 11 12 13 13 13 13 13 13 14 15 15 15 16 17 18 19 20 21 22 23 24 25 26 26 27 27 27
3 3 3 3 4 4 5 6 6 7 8 8 9 9 10 10 11 12 13 13 13 13 14 14 15 16 16 16 16 17 18 19 20 21 22 23 24 25 26 27 28 28 29
2 2 2 3 4 4 5 5 6 7 8 9 9 10 10 11 12 13 14 14 14 14 15 15 16 16 17 17 17 17 18 19 20 21 22 23 24 25 26 27 28 29 30
2 2 3 3 3 4 4 5 6 7 8 9 10 11 11 12 13 14 15 15 16 16 16 17 17 18 19 19 20 20 20 21 21 22 23 24 24 25 26 28 29 30 31
2 2 3 3 3 4 4 5 7 8 9 10 10 11 12 13 14 15 16 16 17 18 18 19 19 20 21 21 22 23 23 23 24 24 25 26 26 26 27 28 30 31 32

GEFSSE_500_meanwind_084.txt.gz
Wind_Speed
3 4 4 4 3 3 3 4 5 5 5 4 4 4 5 5 6 6 7 7 7 7 8 8 8 8 7 7 7 7 7 8 8 7 7 6 6 5 5 5 6 7 7
5 5 6 5 4 3 3 3 3 3 3 3 3 3 4 4 5 6 6 7 7 7 8 8 8 7 7 6 6 6 6 6 7 6 6 5 5 5 4 4 5 5 7
5 5 6 5 4 3 3 2 2 1 2 2 2 3 4 4 5 6 7 7 7 7 8 8 8 7 7 6 6 5 5 5 5 5 5 4 4 4 4 4 4 5 6
6 6 6 5 4 4 3 2 2 1 0 1 2 3 4 5 6 7 8 8 8 8 8 8 8 8 7 6 6 6 5 4 4 3 3 3 3 3 3 3 4 5 6
7 7 7 6 5 4 4 3 2 1 1 2 3 4 6 6 7 8 9 9 9 10 10 9 9 8 8 7 7 6 5 4 3 3 2 2 1 1 2 3 3 5 6
8 9 7 6 5 4 4 3 3 2 2 3 4 5 7 8 9 10 11 11 11 11 11 11 10 10 9 9 8 7 5 5 4 3 2 1 1 0 1 2 3 4 5
10 9 8 7 6 5 4 4 4 4 4 4 5 7 8 9 11 11 12 13 13 13 13 12 12 12 11 10 10 8 7 5 5 4 3 3 2 2 2 2 3 4 5
12 10 9 7 7 6 5 5 5 5 6 7 7 9 10 12 12 13 14 14 15 15 16 15 14 14 13 12 11 10 9 8 7 6 5 5 4 4 4 4 4 5 5
13 11 9 8 7 6 6 6 6 7 8 9 10 11 12 13 14 15 15 16 17 17 17 17 16 16 15 14 13 12 10 9 9 9 8 7 7 6 6 6 7 7 7
14 13 10 9 8 7 6 7 7 8 10 11 11 12 13 14 15 16 16 17 17 18 18 18 17 17 16 15 13 13 12 11 11 10 10 9 9 9 9 8 9 9 9
14 13 11 10 8 7 7 8 9 10 11 12 13 13 14 15 15 16 17 18 18 18 18 18 18 17 16 15 14 13 12 12 12 12 12 11 11 10 10 10 11 11 11
15 14 12 10 8 8 8 9 10 10 11 12 13 13 14 15 15 16 17 17 17 18 17 17 17 17 16 15 14 13 13 13 14 14 14 13 13 13 12 12 13 13 13
16 15 12 10 9 9 9 10 10 11 11 12 13 13 14 14 15 16 16 15 16 16 16 17 17 17 16 16 15 15 14 14 15 16 16 15 15 15 15 14 14 15 16
16 16 14 11 10 10 10 11 11 11 11 12 12 13 13 14 14 15 15 14 15 15 15 15 15 16 16 16 16 16 15 15 16 16 17 16 17 17 16 16 16 17 17
17 16 14 11 11 10 10 10 10 10 11 11 12 12 13 13 13 14 14 14 14 14 15 15 15 15 15 16 16 16 16 16 15 16 16 17 17 17 18 18 17 18 18
18 16 15 12 10 8 8 8 9 10 10 11 12 12 12 12 12 13 13 14 14 14 14 14 14 14 14 14 15 16 15 15 15 15 16 16 17 17 17 19 20 19 20
16 14 13 11 9 7 8 8 8 9 9 11 11 11 11 11 12 12 12 13 13 14 14 14 15 15 14 15 15 15 15 15 15 15 15 15 16 17 18 19 20 20 21
14 13 12 10 8 7 6 6 7 8 9 9 10 10 10 11 11 11 12 12 13 13 13 13 14 14 14 14 14 14 14 15 15 15 15 16 16 17 17 18 19 20 21
14 13 11 9 8 7 6 6 7 7 8 8 9 9 10 10 10 11 11 11 11 12 12 12 12 13 13 14 14 14 14 14 15 15 16 17 17 17 18 18 19 20 20
13 12 10 9 7 6 5 5 5 6 7 7 8 8 9 9 10 10 11 11 11 11 12 12 12 12 12 13 13 14 14 14 15 15 16 17 18 18 18 19 19 20 21
12 11 10 8 7 6 5 5 5 5 6 6 7 7 8 8 9 10 10 10 11 11 11 11 11 11 12 12 13 13 13 13 14 14 15 16 17 18 19 20 21 21 22
11 10 9 8 7 6 5 5 5 5 5 6 6 7 7 8 9 9 9 10 10 10 11 11 11 11 12 13 13 13 13 13 13 14 15 16 17 18 19 20 21 22 24
10 9 9 8 7 6 5 5 4 4 5 5 5 6 7 8 8 9 9 10 10 10 11 11 12 12 13 13 14 14 14 14 14 14 15 16 17 18 19 21 22 23 24
10 9 9 8 7 6 6 5 4 4 4 4 5 5 6 7 8 8 9 10 10 10 11 11 12 13 14 15 15 16 16 16 16 16 16 17 18 19 20 21 22 24 25
10 9 8 8 7 6 7 6 4 4 4 4 4 5 6 7 8 8 9 10 10 11 12 13 14 15 16 16 16 17 18 18 19 19 19 19 20 20 21 22 23 25 26
9 9 8 7 7 7 6 6 5 5 4 4 4 5 6 7 8 9 10 11 11 12 13 14 15 17 18 18 18 18 19 19 20 20 21 21 22 22 23 24 25 26 27

GEFSSE_500_meanwind_090.txt.gz
Wind_Speed
9 8 8 8 7 7 6 6 5 5 5 6 6 6 5 5 5 4 4 4 4 4 4 4 4 4 4 3 3 3 4 4 4 4 4 4 3 3 4 6 6 6 7
9 9 9 8 8 7 7 6 6 5 5 5 5 4 4 3 3 3 2 2 3 3 3 3 3 3 2 2 2 2 2 3 3 3 3 3 3 3 4 5 6 6 6
9 9 9 8 8 8 8 7 6 6 5 5 4 4 3 2 1 1 1 1 2 2 2 2 2 2 2 1 1 1 1 1 1 2 2 2 2 3 4 4 6 6 6
10 9 8 8 9 9 8 8 7 6 5 5 4 3 2 2 1 0 1 1 2 2 2 2 2 2 2 1 1 0 0 1 1 2 2 2 2 3 4 4 5 5 6
11 10 9 9 9 9 9 8 8 7 6 5 4 3 3 2 1 1 2 2 2 2 3 3 3 3 2 2 2 1 1 2 2 3 3 3 3 3 4 4 5 6 6
12 11 10 10 10 10 9 9 8 7 6 5 5 4 3 3 2 3 3 3 4 4 4 4 4 4 4 3 3 3 3 3 4 4 4 4 4 4 5 5 6 6 6
13 12 11 11 11 10 10 10 9 8 7 6 5 5 4 4 4 4 5 5 5 5 5 5 6 6 6 5 5 5 5 5 5 5 5 5 5 4 5 6 7 7 7
13 12 12 12 12 11 11 11 10 9 7 7 6 5 5 5 5 6 6 6 6 6 7 7 7 7 7 7 7 7 7 7 7 7 7 7 6 6 6 6 7 8 8
14 14 13 13 13 12 12 11 10 9 8 7 7 6 6 6 7 7 7 7 8 8 8 9 9 8 8 7 7 8 8 9 9 9 9 9 9 8 8 8 8 9 9
16 15 15 15 14 13 12 11 10 9 8 8 7 7 7 8 8 8 8 8 9 9 9 10 9 9 9 8 8 8 8 9 10 11 11 11 11 10 10 10 10 10 11
17 17 17 16 15 14 13 11 10 9 9 8 8 8 8 9 9 9 9 10 10 10 10 9 9 9 9 8 8 8 8 9 11 12 12 12 12 12 12 11 11 12 12
19 19 19 18 17 15 13 12 11 10 10 9 9 9 9 9 9 9 9 10 10 9 9 9 9 8 8 8 8 8 8 9 10 12 13 13 13 13 13 13 13 13 14
21 21 20 20 18 15 13 12 11 11 10 9 9 9 9 9 8 9 9 9 9 9 9 9 8 8 8 9 8 9 9 10 11 11 12 13 14 14 14 15 14 14 15
21 22 21 20 18 15 13 12 11 11 10 9 9 8 8 8 7 8 8 8 8 8 8 8 8 8 8 9 9 9 10 11 12 12 12 13 15 16 16 17 16 15 16
22 22 21 21 19 15 14 13 12 10 9 9 8 7 7 7 7 7 7 8 8 8 8 8 8 8 8 8 8 9 9 10 12 12 12 13 15 16 17 17 17 16 17
23 23 22 21 19 16 14 12 11 10 9 7 6 6 6 6 6 7 7 8 8 8 8 8 8 8 8 8 8 9 10 10 11 11 12 13 14 15 16 17 17 17 17
25 24 22 21 19 17 14 12 11 9 7 6 6 5 5 5 6 6 7 7 8 8 8 8 8 8 8 8 8 8 8 10 10 11 12 13 13 14 15 16 17 16 16
25 24 23 22 19 16 14 11 9 8 6 5 4 4 4 4 5 5 5 6 7 7 7 7 7 7 7 7 8 8 8 9 10 11 12 13 14 14 14 15 16 17 17
24 24 23 21 19 16 14 11 9 7 6 4 3 3 2 3 3 4 4 5 6 6 6 6 6 6 7 7 7 8 8 9 10 10 12 13 14 14 14 15 15 16 17
22 23 21 19 17 15 13 11 8 6 5 3 2 2 1 1 2 3 4 4 5 5 5 5 5 6 6 7 7 8 8 9 9 10 11 12 13 14 15 15 16 17 18
20 21 20 18 16 14 12 10 8 6 4 3 2 1 1 0 1 2 3 4 5 5 5 5 5 6 7 7 8 8 8 9 9 10 10 11 13 14 15 15 16 16 17
18 19 18 16 16 14 12 10 8 6 4 3 2 2 1 0 1 2 3 3 4 4 4 5 6 7 7 8 8 8 8 8 9 9 10 11 12 13 14 15 16 17 18
16 16 17 16 15 13 11 10 8 7 5 4 3 2 2 1 1 2 2 3 4 4 4 5 6 7 8 9 9 9 9 10 10 11 11 12 13 14 15 16 17 18 19
14 14 15 14 14 13 11 10 8 7 6 5 4 3 2 1 1 2 3 3 4 4 5 6 7 8 9 10 10 11 11 11 12 12 13 14 15 15 16 17 18 19 20
12 12 13 13 13 12 11 9 9 7 6 6 4 4 3 3 3 3 3 4 5 5 6 7 8 9 10 10 11 11 11 12 13 13 14 14 15 16 17 18 19 20 21
10 11 12 12 12 11 11 10 9 8 7 6 5 5 5 4 4 4 5 5 6 6 7 7 9 10 10 11 12 12 12 13 14 14 14 15 15 16 17 18 19 20 22

GEFSSE_500_meanwind_096.txt.gz
Wind_Speed
10 10 9 9 8 7 6 6 5 4 4 4 3 3 2 2 2 1 1 1 2 2 2 2 2 2 2 2 2 2 2 3 3 3 3 3 3 3 3 4 4 6 6
12 11 10 10 9 8 7 6 5 5 5 5 4 4 3 2 2 1 1 0 0 1 1 1 1 1 1 1 1 1 1 1 2 2 2 2 2 2 3 3 4 5 6
13 12 12 10 9 8 8 7 6 6 6 6 5 4 4 3 3 2 2 2 1 1 1 1 1 1 1 2 2 2 2 2 2 1 1 1 1 1 2 3 3 5 6
14 13 12 11 10 9 8 7 7 6 6 6 6 5 5 4 4 3 2 2 2 2 2 2 2 2 2 3 3 3 3 3 3 2 2 1 1 1 1 2 3 4 5
15 14 13 12 10 9 8 8 7 7 7 7 7 6 5 5 4 4 4 3 3 3 3 3 4 4 4 4 5 5 4 4 4 4 3 2 2 2 2 3 3 3 4
16 14 13 12 11 10 9 8 8 8 8 8 7 7 6 6 5 5 5 5 5 5 5 5 5 5 5 5 6 6 6 6 5 5 4 3 3 3 2 3 3 3 4
15 15 14 13 12 11 10 9 9 9 9 9 8 7 7 7 6 6 6 6 6 6 6 6 6 6 7 7 7 8 8 7 7 6 5 5 4 4 4 4 4 4 4
16 17 15 14 13 12 11 10 10 10 10 10 9 8 8 8 7 7 7 7 7 7 7 7 7 8 8 8 9 9 9 9 8 7 7 7 6 5 5 5 5 5 5
15 16 16 15 14 13 12 11 11 11 11 10 10 9 9 9 9 8 8 8 8 8 8 9 8 8 9 9 9 8 8 9 9 9 9 9 9 8 6 6 6 6 7
16 16 17 16 15 14 13 13 13 12 11 11 11 10 10 10 9 9 9 9 9 8 9 9 9 9 9 9 9 9 9 9 10 10 11 11 10 9 9 8 8 8 8
16 17 17 17 16 15 14 14 13 13 12 12 11 11 10 10 10 10 9 9 9 9 9 9 9 9 9 9 9 9 9 9 9 10 11 10 10 11 10 10 9 9 9
18 18 18 18 17 16 15 15 14 14 13 12 12 12 11 11 10 10 9 9 9 8 9 9 8 8 8 9 9 9 9 9 9 9 10 11 11 12 12 11 11 12 11
21 20 19 20 19 18 17 16 15 14 13 13 12 11 10 9 9 9 9 8 7 7 7 8 7 7 7 7 7 8 9 10 9 8 10 11 12 12 13 13 12 13 13
22 22 21 20 20 18 18 16 15 14 13 12 10 10 10 9 9 8 7 7 6 5 5 5 5 6 6 7 8 8 10 10 9 9 9 10 12 13 13 13 13 14 14
23 23 23 22 21 18 17 16 15 13 11 10 9 9 9 8 8 7 7 6 5 5 4 5 5 6 6 6 7 7 8 9 9 9 10 10 10 12 13 13 13 14 14
23 23 22 22 20 18 17 16 14 11 9 9 8 8 7 7 6 6 5 4 4 4 4 5 5 5 5 5 6 6 6 6 7 8 9 10 11 12 12 13 13 14 15
20 21 21 21 19 17 16 14 12 11 9 8 7 7 6 5 5 4 4 3 4 4 4 4 4 4 4 4 4 5 5 6 7 8 8 8 9 10 11 12 13 13 14
20 19 19 19 18 17 15 14 13 11 10 8 7 6 4 3 3 3 3 2 3 3 3 4 4 4 4 4 5 5 5 6 6 7 8 8 9 9 10 11 12 13 13
19 19 19 19 18 16 14 14 13 11 9 7 7 6 4 2 1 0 0 1 2 3 3 3 3 4 5 5 5 5 6 6 7 7 8 8 8 9 9 10 11 12 12
17 17 18 18 17 15 14 13 12 10 8 7 7 5 3 2 1 1 1 2 2 3 3 4 4 4 5 5 6 6 6 7 7 7 7 8 8 8 9 9 10 10 11
16 17 18 19 17 15 14 13 11 9 8 7 6 4 4 3 2 1 1 2 2 3 4 4 5 5 6 6 6 7 7 7 8 8 8 8 9 9 9 9 10 10 10
14 16 17 18 17 15 14 13 11 9 8 7 5 5 4 3 2 1 1 1 2 3 4 4 5 6 7 7 7 7 8 8 8 9 9 9 9 9 10 10 10 11 12
12 14 16 16 15 13 13 12 11 9 9 7 6 5 4 3 3 1 1 1 2 3 4 4 5 6 7 7 7 8 9 9 9 10 10 10 10 10 10 11 11 11 12
9 12 14 14 14 13 13 12 11 10 9 8 7 6 5 4 3 2 1 1 2 3 4 5 6 6 7 8 8 9 10 11 11 10 11 11 11 11 12 12 12 12 13
5 9 12 12 12 12 12 12 11 10 9 8 7 7 6 5 4 3 2 2 2 3 3 4 5 7 8 8 9 10 11 11 12 11 11 11 12 12 13 13 13 14 14
4 7 9 10 11 11 11 11 11 11 10 9 8 8 7 6 5 4 4 3 4 4 4 5 6 8 8 9 10 11 12 12 12 12 12 12 12 13 14 14 15 15 15

GEFSSE_500_meanwind_102.txt.gz
Wind_Speed
5 5 5 5 4 4 3 2 2 3 3 4 4 4 4 4 4 4 4 4 4 4 4 4 4 4 3 3 3 3 2 3 3 3 3 3 3 4 4 4 5 6 7
5 6 6 6 6 5 5 4 3 3 4 4 5 5 5 5 5 5 5 5 5 5 5 5 5 4 4 4 3 3 3 2 2 2 2 2 3 3 4 4 5 6 7
7 7 8 8 7 7 6 5 4 4 4 4 5 5 6 6 6 6 6 6 6 6 6 6 6 6 5 5 5 4 3 2 2 1 1 1 2 3 3 4 5 6 6
8 8 9 9 9 8 7 6 6 5 4 5 5 6 6 6 6 7 7 7 7 7 7 7 7 7 6 6 6 5 4 3 2 2 1 1 1 2 3 3 4 5 6
8 9 9 10 10 9 8 8 7 6 5 6 6 6 7 7 7 7 7 7 8 8 8 8 8 8 7 7 6 6 6 5 4 3 2 1 0 2 3 3 5 5 6
11 10 10 10 10 10 9 8 7 6 6 6 6 7 7 8 8 8 9 9 9 9 9 9 9 9 8 8 7 7 6 6 5 4 3 2 2 2 3 4 5 5 5
11 11 11 11 12 11 11 9 8 7 6 6 7 7 8 8 9 9 10 10 10 10 10 10 10 10 9 9 8 8 7 6 6 5 5 4 4 4 4 4 5 5 5
10 11 12 12 13 13 11 10 9 8 7 7 7 8 9 9 10 10 10 11 11 11 11 11 11 11 10 10 9 9 8 7 7 7 7 6 6 6 5 5 5 5 5
9 11 12 13 13 13 12 11 9 8 8 8 8 9 9 10 10 11 11 11 11 11 11 11 11 11 11 11 10 9 8 8 8 9 8 7 7 7 7 6 6 5 5
11 11 13 13 14 14 13 12 10 10 9 9 9 9 10 10 11 11 11 11 11 11 11 11 11 11 12 11 10 8 8 8 9 9 9 8 7 8 8 7 7 6 6
13 14 15 15 15 15 14 12 12 11 10 9 10 10 10 11 11 11 11 11 11 11 11 11 11 11 11 10 9 8 7 8 8 8 8 8 7 8 9 9 8 8 7
14 14 16 17 16 15 15 14 13 12 11 11 11 10 10 10 10 10 9 10 10 10 10 10 10 10 10 9 8 7 7 7 8 8 8 7 7 7 8 9 9 8 8
15 16 16 18 18 17 16 15 14 13 13 12 12 11 11 10 9 9 8 8 8 8 8 8 8 8 8 8 7 6 6 6 7 8 7 7 6 7 8 8 8 8 8
14 15 16 18 19 18 17 15 14 14 13 12 12 11 10 9 9 8 7 7 6 6 5 6 6 7 7 7 6 6 5 6 6 7 7 6 6 7 7 8 8 8 9
16 16 17 18 20 19 18 16 15 14 13 11 10 10 9 8 8 7 7 6 5 5 5 5 5 6 6 7 6 6 5 5 6 6 6 5 6 6 7 8 8 8 9
15 17 17 17 19 19 17 16 15 14 12 10 9 9 8 7 6 6 6 5 4 4 4 4 4 4 5 5 5 5 4 4 4 4 5 5 5 5 6 7 7 8 9
13 16 16 17 19 19 17 16 16 14 12 10 9 8 6 6 5 4 4 3 2 2 2 2 2 2 3 4 4 4 4 3 3 3 3 3 4 4 5 6 7 7 8
11 14 16 16 17 18 18 16 14 13 11 10 9 7 6 6 5 4 3 3 3 2 1 1 1 1 2 3 4 4 4 3 3 3 3 3 4 4 5 6 7 8 8
10 13 15 15 15 16 17 15 13 12 11 10 9 8 7 6 5 4 4 3 3 2 1 1 1 1 1 2 3 4 4 3 3 3 3 3 3 4 4 5 6 7 8
9 10 14 16 16 17 16 15 14 13 12 10 10 9 8 7 6 5 5 4 3 2 2 1 1 1 1 2 2 4 5 4 4 4 3 3 3 3 4 4 5 6 7
8 10 13 16 17 18 16 15 14 14 12 11 10 10 9 8 7 7 6 5 4 3 2 2 2 2 2 2 3 3 4 4 5 5 4 3 2 2 3 3 3 4 5
6 11 14 15 17 17 15 15 15 15 13 12 11 11 10 10 9 7 6 5 4 3 2 2 2 2 2 2 3 3 4 4 5 5 4 3 3 2 3 3 3 3 4
7 11 13 15 16 17 15 15 15 14 13 12 12 12 11 10 9 8 6 5 4 3 3 2 2 2 3 3 3 3 4 4 5 5 5 4 3 3 3 3 4 4 5
6 9 13 15 16 17 16 16 15 15 14 14 14 13 12 11 9 8 7 6 5 4 2 2 2 2 2 2 3 3 4 4 5 5 5 5 4 4 4 4 5 6 6
6 9 12 14 15 16 17 16 16 16 16 15 14 13 12 11 10 9 8 7 5 4 3 2 1 1 1 2 3 3 4 5 5 5 5 5 5 5 5 5 6 6 7
6 9 11 13 14 15 16 16 16 16 16 15 15 13 12 11 11 10 9 8 6 5 4 3 2 2 2 2 3 4 4 5 6 6 6 6 6 6 7 7 7 7 8

GEFSSE_500_meanwind_108.txt.gz
Wind_Speed
4 5 6 6 6 6 6 6 5 5 4 4 3 4 4 5 5 6 6 7 7 8 8 8 7 7 6 6 6 5 5 4 4 4 4 4 4 4 4 5 6 7 7
5 6 7 8 7 7 6 6 5 4 4 3 3 3 3 4 5 6 6 7 8 8 8 8 8 8 7 7 6 6 5 4 4 3 3 3 4 3 4 4 5 6 7
6 7 8 9 9 8 6 6 5 4 3 2 1 2 3 4 5 6 7 8 8 9 9 9 9 9 8 7 7 6 5 4 4 3 3 3 3 3 3 4 5 6 7
7 8 9 10 9 8 7 6 5 4 3 2 0 2 3 4 5 6 7 8 8 9 9 9 9 9 8 8 7 6 5 4 4 3 3 2 2 2 3 4 5 5 6
7 8 10 11 10 9 8 6 5 5 4 2 1 2 3 4 6 7 7 8 9 9 10 10 9 9 8 7 6 5 5 4 3 2 2 1 1 2 3 3 4 5 6
7 8 10 11 11 10 9 7 6 5 4 3 2 2 4 5 6 7 8 8 9 9 10 10 9 9 8 7 6 5 5 4 3 2 2 1 0 2 3 4 4 5 6
8 9 11 12 11 11 10 8 7 6 5 4 3 3 4 6 7 8 8 9 9 10 10 10 9 9 8 7 7 6 5 4 3 3 2 1 1 2 3 4 4 5 5
9 10 12 13 12 11 10 9 8 7 6 4 3 4 5 6 7 8 9 9 10 10 10 9 9 9 8 7 7 6 6 5 4 3 3 2 2 2 3 4 5 5 5
9 11 13 14 14 13 11 10 10 9 7 5 4 5 5 6 8 9 9 10 10 10 9 9 9 8 8 7 7 6 6 5 5 4 4 3 3 3 4 5 6 6 6
9 12 14 15 15 14 13 12 11 9 8 6 6 6 6 7 8 9 9 10 10 10 9 9 8 7 7 7 7 6 6 5 5 5 4 4 5 5 5 6 7 7 6
10 12 14 15 14 15 14 13 12 10 9 8 7 7 7 7 8 9 9 9 10 9 9 8 7 7 6 6 5 5 5 5 5 4 4 5 5 6 6 7 8 8 8
11 11 14 15 15 15 15 14 13 11 10 9 8 7 8 8 9 8 9 9 9 9 8 7 6 6 5 4 4 4 5 5 4 4 4 4 6 6 7 8 9 9 9
12 13 14 16 16 16 17 16 14 12 11 10 9 8 9 9 8 8 8 8 8 8 7 6 5 5 4 4 4 4 4 4 4 4 4 4 5 6 7 8 10 10 10
13 13 15 17 18 17 18 17 15 14 13 11 11 10 10 9 8 8 7 7 6 6 6 5 5 4 3 3 3 3 3 3 4 4 4 4 5 6 6 7 8 10 10
13 14 16 17 18 18 19 18 16 15 14 12 11 10 10 9 8 7 7 6 6 6 5 4 4 3 2 2 3 3 3 3 3 3 4 4 4 6 7 7 8 9 10
11 13 16 17 18 20 21 20 17 16 14 12 11 9 8 8 7 7 6 5 5 4 4 3 3 2 2 2 2 3 3 3 3 3 3 4 4 5 6 7 8 9 10
9 12 15 17 18 19 20 20 18 16 15 13 11 10 8 8 7 6 5 4 3 3 2 2 2 2 2 2 2 2 2 2 2 2 3 3 3 4 5 6 7 8 9
8 12 15 16 18 19 19 19 19 17 15 14 13 11 9 8 7 6 4 3 3 2 1 1 1 2 2 2 2 2 2 2 2 2 2 2 3 4 5 6 7 8 9
8 11 14 15 16 19 19 19 19 17 16 14 13 12 10 9 7 6 5 4 2 1 0 1 1 2 2 2 2 2 2 2 2 1 1 1 2 3 4 5 6 8 8
7 11 13 15 17 18 19 19 19 17 16 14 13 12 11 9 8 7 6 4 3 2 1 0 1 1 1 2 2 2 2 2 2 2 1 1 2 3 4 5 6 7 7
7 10 13 15 17 18 19 18 18 17 16 14 13 12 11 10 9 8 7 5 3 2 1 0 0 1 1 1 1 2 2 2 2 2 2 2 1 2 2 3 4 5 6
7 9 14 17 17 17 19 19 18 17 16 15 14 13 12 11 9 8 8 6 4 3 2 1 1 0 0 1 1 1 1 2 2 3 2 2 2 2 1 2 3 4 5
8 10 13 17 18 18 20 20 18 17 17 17 15 14 13 11 10 10 8 7 5 4 3 2 1 0 0 0 1 1 1 1 2 3 3 2 2 2 2 2 3 4 5
7 10 13 16 18 20 20 20 19 17 17 16 16 15 14 12 11 11 9 8 6 5 4 3 2 1 0 0 0 1 2 2 2 3 3 3 3 3 3 4 4 5 6
6 9 12 16 18 20 20 20 19 18 17 17 16 15 15 14 12 11 10 9 7 6 5 4 3 2 2 1 1 2 2 3 3 3 4 4 4 4 4 5 5 6 6
5 8 11 15 17 18 19 19 19 18 18 17 16 16 16 15 13 12 11 10 9 8 7 6 5 4 3 3 3 3 4 4 4 5 5 5 6 6 6 6 6 7 7

GEFSSE_500_meanwind_114.txt.gz
Wind_Speed
7 8 9 9 9 8 8 8 8 8 8 7 7 6 6 6 6 7 7 8 8 8 7 7 6 6 5 5 4 4 4 4 3 3 4 4 4 4 4 5 5 5 6
7 8 10 10 10 10 9 9 8 8 8 7 7 6 6 6 6 6 7 7 7 7 7 7 6 6 5 5 4 4 4 3 3 3 3 4 4 4 4 5 5 5 6
9 9 10 11 11 11 10 10 9 9 8 7 6 6 5 5 5 6 6 6 6 6 6 6 6 5 5 5 4 4 3 3 3 3 3 4 4 4 5 5 5 5 6
9 10 10 11 12 12 12 11 10 9 8 7 6 5 5 4 4 5 5 5 5 5 6 5 5 4 4 4 4 4 3 3 3 3 3 4 4 5 5 5 5 5 6
8 9 10 11 12 12 12 11 11 10 9 8 6 5 4 4 3 3 4 4 4 4 5 4 4 3 3 3 3 3 3 3 3 4 4 4 4 5 5 5 6 5 6
8 9 10 12 13 13 13 12 11 10 9 8 6 5 4 3 3 3 3 3 3 3 3 3 3 3 2 2 1 2 2 2 3 3 4 4 4 5 5 5 6 6 6
8 10 10 12 13 13 13 13 12 11 10 8 7 6 4 3 2 2 2 2 2 2 2 3 2 2 1 1 1 1 1 2 3 4 4 4 5 5 6 6 6 6 7
9 10 12 13 14 14 14 14 13 12 10 9 7 6 5 3 2 1 1 2 2 2 2 2 1 1 0 0 1 1 2 2 3 4 4 5 5 6 6 7 7 7 7
8 11 12 14 15 15 15 15 14 13 11 9 8 7 5 3 1 1 1 1 1 1 2 2 1 1 1 1 2 2 3 3 4 4 5 5 6 7 7 8 8 8 9
9 11 12 14 15 17 17 16 15 13 11 10 9 7 5 3 2 1 0 1 1 1 2 2 1 1 1 1 2 2 3 3 4 5 5 6 7 8 8 8 9 9 9
9 11 13 14 16 18 18 17 16 14 12 11 9 7 6 4 2 1 1 1 1 1 1 1 1 2 2 2 1 2 2 3 4 4 5 6 7 8 9 9 10 10 10
10 11 13 16 17 18 18 18 17 15 14 12 10 8 6 5 3 2 1 0 0 0 1 1 1 2 2 2 2 2 2 3 4 4 5 6 7 8 9 10 11 11 11
12 13 13 16 18 18 19 19 18 17 15 13 10 8 6 5 3 2 2 1 1 1 1 1 1 2 2 2 2 2 2 3 4 4 5 5 7 8 9 9 11 11 11
13 14 14 17 19 19 19 19 19 18 16 13 11 9 7 6 5 4 3 2 1 1 1 1 1 1 1 2 2 2 2 3 3 4 5 6 6 7 8 9 10 11 11
14 14 15 17 19 21 20 19 19 18 16 14 11 9 7 6 6 5 3 2 2 2 1 1 1 1 1 2 2 2 2 3 3 4 4 5 5 6 7 8 9 10 10
14 12 14 17 20 21 21 20 21 19 17 14 12 9 8 7 6 5 4 4 3 2 1 0 0 0 1 1 1 2 2 2 3 3 3 4 4 5 6 7 8 8 9
12 11 11 15 19 21 22 21 21 20 18 15 13 10 9 8 7 5 5 4 3 2 2 1 1 1 1 0 1 1 2 2 2 2 2 3 3 4 5 7 7 8 9
12 11 12 13 17 20 22 22 22 20 18 16 14 12 10 9 8 6 5 5 4 3 2 1 1 1 1 1 1 1 1 2 2 1 2 2 3 3 4 5 6 7 7
10 10 12 14 17 20 22 22 22 21 19 17 15 13 10 10 8 7 6 5 4 3 3 2 2 2 1 1 1 1 1 2 2 1 1 2 3 3 4 5 5 6 6
9 10 12 14 15 17 20 21 21 20 19 17 15 13 12 11 9 8 7 6 5 4 3 3 3 2 2 1 1 1 1 1 2 2 2 2 2 2 3 4 5 6 6
8 10 12 15 15 17 19 20 20 19 18 17 15 13 13 11 10 8 7 7 6 5 4 3 3 2 2 1 1 1 1 1 1 1 2 2 2 2 2 3 4 5 5
6 8 11 14 15 17 20 20 19 19 18 16 16 14 13 11 10 8 7 7 6 5 4 4 3 3 2 1 1 0 1 2 2 2 2 2 2 2 2 3 3 4 5
6 8 11 13 15 17 19 20 19 19 17 17 16 15 13 12 10 9 8 7 7 6 5 4 4 3 3 2 1 1 1 2 2 2 3 3 3 3 3 3 3 4 5
6 7 10 13 15 16 18 18 18 18 17 17 17 15 14 13 11 10 9 9 8 7 6 6 5 4 3 2 2 1 1 2 2 3 3 4 4 4 4 5 5 5 6
5 6 8 12 15 17 18 18 17 18 18 18 17 16 15 13 12 11 10 10 9 8 8 7 6 5 3 3 2 2 2 2 3 3 4 4 4 5 5 6 7 7 7
4 5 7 10 14 16 17 18 18 18 18 18 17 16 15 14 13 12 11 11 10 10 9 8 7 6 5 4 3 3 3 4 4 4 5 5 6 6 7 7 7 8 8

GEFSSE_500_meanwind_120.txt.gz
Wind_Speed
7 8 8 8 9 8 8 7 6 6 6 5 5 4 4 4 4 4 4 4 4 4 4 3 3 3 2 2 1 1 1 1 1 1 1 2 2 2 3 3 4 5 5
8 8 9 9 9 9 8 8 7 7 7 6 5 5 4 4 4 4 4 3 3 3 3 3 2 2 2 1 1 0 0 0 0 1 1 1 1 2 2 3 4 5 5
9 9 9 9 10 10 9 9 8 8 7 7 6 5 5 4 3 3 3 2 2 2 2 2 1 2 1 0 0 1 1 0 0 0 1 2 1 2 3 3 4 4 5
9 9 10 10 10 10 10 10 9 8 8 8 7 6 5 4 3 2 2 1 1 1 1 1 1 1 0 0 1 1 1 1 1 1 1 2 2 3 3 3 3 3 4
9 9 10 10 11 11 11 10 10 9 9 8 7 6 5 4 3 2 2 1 1 0 0 0 0 1 1 1 2 1 2 2 2 2 1 2 2 2 2 3 2 3 3
9 10 11 11 12 12 11 11 11 10 10 9 8 7 6 5 4 3 2 2 1 1 1 1 1 2 2 2 3 2 2 2 2 2 2 3 2 2 2 2 3 2 3
9 10 11 12 12 13 12 12 12 11 11 10 9 8 7 5 4 3 3 2 2 2 2 2 2 2 2 3 3 3 3 3 2 3 3 3 3 2 2 2 2 2 3
9 11 11 12 13 13 13 13 12 12 11 10 9 8 7 6 5 4 3 2 2 3 3 3 3 3 3 3 3 3 4 3 3 3 3 3 3 3 3 3 2 3 3
10 11 12 12 14 15 14 13 13 13 12 11 10 9 8 7 6 5 4 3 3 3 3 3 3 3 3 3 3 4 4 4 4 4 4 4 4 4 4 4 4 4 4
10 10 12 13 14 14 15 15 14 13 13 12 11 10 9 8 6 6 5 4 4 3 3 3 3 3 3 3 3 3 4 4 4 4 5 5 5 5 5 5 5 5 5
12 11 11 13 13 14 15 16 16 15 14 12 11 10 9 8 7 6 5 5 4 4 3 3 3 3 3 3 3 3 3 3 3 3 4 5 5 5 6 6 6 6 7
14 13 12 12 13 14 16 16 17 16 15 14 12 11 9 8 7 6 6 5 4 3 3 3 2 2 2 2 2 3 2 2 3 3 4 5 5 6 5 6 6 7 7
16 15 13 13 14 15 16 17 17 17 16 15 13 11 10 9 8 7 6 5 4 3 3 2 2 2 2 2 2 2 2 2 3 4 4 5 5 5 5 6 7 8 8
18 17 15 15 15 15 17 19 19 18 17 16 14 12 11 10 9 8 6 5 4 3 3 2 1 1 1 1 2 2 2 2 3 3 4 4 4 4 5 5 6 7 8
19 18 17 17 15 15 16 17 18 18 16 16 14 13 11 10 9 8 6 5 4 3 2 1 0 0 1 1 2 2 2 3 3 3 3 3 3 4 4 5 6 7 7
19 17 17 15 13 13 15 18 18 18 16 15 14 13 11 10 9 7 6 5 4 3 2 1 0 1 1 1 2 2 3 3 3 3 3 2 3 3 3 4 4 5 6
17 16 16 13 13 12 14 17 17 17 15 15 14 13 11 10 8 7 5 4 4 3 2 1 0 1 1 2 2 3 3 4 3 3 2 3 3 2 2 3 3 4 5
15 15 15 13 12 12 12 15 16 16 16 15 14 13 11 10 8 7 6 5 4 3 2 1 0 1 1 2 2 3 3 4 4 4 3 3 3 3 2 2 3 3 3
14 14 14 13 12 11 11 15 17 17 17 16 14 13 12 10 9 8 7 6 4 3 2 1 1 0 1 2 2 3 3 4 4 4 4 4 4 4 3 3 2 2 3
12 11 11 10 11 11 11 13 15 16 16 16 15 13 12 11 10 9 8 7 5 4 3 2 2 1 0 1 2 3 3 3 4 4 4 5 5 5 5 3 2 2 3
9 9 8 9 10 11 11 13 14 16 16 16 15 14 13 12 11 9 8 7 6 5 4 3 2 1 1 1 2 3 3 3 4 4 4 5 5 6 5 5 3 3 3
9 8 7 8 9 10 11 13 15 16 16 16 15 14 13 12 11 10 9 8 7 6 5 4 3 2 1 1 1 2 3 3 4 4 5 4 5 6 6 6 4 3 3
9 8 8 8 9 10 11 13 15 16 16 15 14 14 14 13 12 10 10 9 8 7 6 5 3 3 2 1 1 2 2 3 3 4 5 5 5 6 6 6 5 5 5
8 7 7 7 9 10 11 13 14 15 15 14 14 16 15 14 13 12 11 10 9 8 7 6 4 3 2 1 0 1 1 2 3 4 5 5 5 6 6 6 6 6 5
7 6 6 6 7 9 10 12 14 15 15 15 15 16 15 15 14 13 12 10 10 9 8 7 6 5 3 2 1 1 2 2 3 3 4 5 5 6 6 6 6 7 7
6 5 5 6 7 8 10 12 14 15 16 16 16 16 15 15 14 13 13 12 11 10 10 9 8 7 5 4 3 3 3 3 4 4 4 5 5 6 7 7 7 7 7

GEFSSE_500_meanwind_126.txt.gz
Wind_Speed
1 2 4 5 4 4 4 3 3 3 3 3 4 4 3 3 3 2 2 2 2 2 2 2 2 2 2 2 2 1 2 2 2 1 2 2 3 3 3 4 4 5 6
1 1 4 5 5 5 5 4 4 4 4 4 4 4 4 4 3 3 2 2 2 2 2 2 2 2 2 2 2 1 1 2 2 1 1 2 2 3 3 3 4 5 6
2 1 3 5 6 6 6 5 5 5 4 5 5 5 5 5 4 3 3 3 3 3 3 3 3 2 2 2 2 1 2 2 1 1 1 1 2 2 3 3 4 5 6
3 1 2 4 6 6 7 7 6 6 5 5 6 6 6 5 5 4 4 4 4 4 4 4 4 3 3 2 2 2 2 2 1 1 0 1 2 2 3 3 4 5 5
3 1 2 4 6 7 8 8 7 7 6 6 6 6 6 6 5 5 4 4 4 4 4 5 4 4 3 3 3 2 2 2 2 1 0 1 2 2 2 3 3 4 4
4 2 2 4 6 7 8 9 9 8 7 7 6 7 6 6 6 5 4 4 5 5 5 5 5 4 4 4 3 3 2 2 2 1 0 1 2 2 2 3 3 4 4
5 3 3 4 6 8 9 9 9 9 8 7 7 7 7 6 6 6 5 5 5 5 5 5 5 5 4 4 3 3 3 2 1 1 1 1 2 2 2 3 3 3 3
5 4 4 5 6 8 10 11 11 10 9 8 7 7 7 6 6 6 6 6 6 6 6 6 5 5 4 4 4 3 3 3 2 2 2 2 2 2 3 3 3 3 3
6 5 5 6 7 9 10 11 11 11 10 9 8 7 7 6 6 6 7 6 6 6 6 5 5 5 4 4 4 4 3 3 2 3 3 3 3 3 3 3 4 3 3
7 7 7 7 9 10 11 11 11 11 11 10 9 8 7 7 7 7 7 6 6 6 6 5 4 4 4 3 3 3 3 3 2 2 3 3 3 3 3 4 4 4 4
9 8 8 8 9 10 11 12 12 12 12 11 9 8 8 7 7 7 6 6 6 5 5 4 4 4 3 3 3 3 2 2 1 2 2 3 3 3 3 3 4 4 5
11 10 10 8 9 11 12 13 13 13 13 12 11 10 9 8 7 7 6 5 5 4 4 4 4 3 3 2 2 2 2 1 1 1 1 3 3 4 4 4 4 5 6
13 12 11 9 9 11 12 14 15 14 13 13 12 11 9 8 7 7 6 5 5 5 4 4 3 3 2 2 2 2 2 1 1 1 1 2 3 3 4 3 3 5 6
14 15 12 11 11 11 12 14 15 15 14 13 13 12 10 9 7 6 6 5 5 4 3 3 2 2 2 2 1 1 1 1 1 1 1 1 2 3 3 4 3 4 6
15 13 13 13 10 10 11 13 13 15 15 14 13 13 11 9 7 7 6 5 4 3 3 2 2 1 1 2 2 1 2 2 1 1 1 1 2 2 3 3 4 5 6
14 14 14 12 11 10 10 11 13 14 14 15 14 13 11 10 8 7 6 5 4 3 2 1 1 0 1 1 1 1 2 2 2 2 1 1 2 2 2 3 3 4 6
14 13 13 10 10 10 9 9 11 13 14 14 14 13 12 10 9 7 6 6 5 4 3 2 1 0 1 1 1 2 2 2 2 2 3 3 2 2 2 2 2 3 5
15 13 11 9 8 9 9 10 11 14 15 14 14 13 12 10 9 9 8 7 6 5 4 3 2 1 1 1 2 2 3 2 3 3 4 4 3 3 2 2 2 3 3
14 13 11 9 6 7 9 10 11 14 15 14 14 14 12 11 10 10 8 7 6 5 4 3 2 1 1 2 2 2 3 3 3 4 5 5 4 4 3 2 2 3 3
12 10 8 7 7 7 8 8 10 12 14 14 14 14 13 12 11 10 9 8 7 6 4 3 3 2 2 2 2 2 2 2 3 4 4 4 4 4 4 3 2 2 2
10 8 6 6 7 7 8 8 9 11 13 14 14 14 13 12 12 11 10 9 8 7 5 4 4 3 3 3 3 3 2 3 3 3 3 3 4 4 4 4 3 2 2
9 7 6 8 7 7 9 10 11 12 13 14 15 15 14 13 13 12 11 10 9 7 6 5 4 4 4 3 3 3 3 3 3 3 3 3 3 3 3 3 3 3 2
8 7 5 6 7 8 9 10 13 13 13 14 16 15 14 14 14 13 12 10 10 8 7 6 5 5 5 4 4 4 3 3 3 3 3 2 2 2 2 3 2 2 2
8 7 5 5 8 9 9 10 13 13 14 14 17 16 15 15 15 14 12 11 11 10 9 8 7 6 6 6 5 4 3 3 2 2 2 2 2 2 2 2 1 1 0
8 7 6 6 7 8 8 10 13 14 15 15 16 16 15 16 15 15 13 12 12 11 10 9 9 8 7 7 5 4 4 3 2 2 1 1 1 0 1 1 1 1 1
7 6 5 3 6 8 9 11 13 15 15 15 16 15 15 16 16 15 14 13 13 13 12 11 10 10 9 8 7 6 5 4 3 3 2 2 2 2 2 3 3 3 3

GEFSSE_500_meanwind_132.txt.gz
Wind_Speed
1 2 3 2 2 2 2 3 4 5 5 6 6 6 7 7 7 7 7 7 6 6 6 6 6 5 5 5 5 4 4 4 4 4 4 5 5 5 6 6 6 7 7
1 2 3 3 3 2 2 3 4 4 5 5 6 6 6 6 6 7 7 7 6 6 6 6 6 6 5 5 5 4 4 4 4 4 4 4 4 5 5 5 6 7 7
1 2 3 4 3 3 2 2 3 3 4 4 5 6 6 6 6 7 7 7 7 6 7 7 6 6 5 5 4 4 4 4 4 3 3 4 4 5 5 5 6 6 7
1 2 3 4 4 4 3 3 3 3 3 3 4 4 5 6 6 6 6 7 7 6 6 6 6 6 5 5 4 4 4 3 3 3 3 3 4 5 5 5 5 6 7
1 1 3 4 4 5 4 4 3 2 2 2 3 3 4 5 5 6 6 6 6 6 7 6 6 5 5 4 4 3 3 3 3 2 2 3 3 4 4 4 5 6 6
2 1 2 3 4 5 5 5 3 3 2 1 1 2 3 4 5 5 5 6 6 6 7 7 6 5 5 4 4 3 3 2 2 2 2 2 3 3 3 4 4 5 5
2 1 2 3 3 5 6 5 5 4 3 2 1 0 1 3 4 5 5 6 6 6 7 6 6 5 4 4 3 3 3 2 1 1 2 2 2 2 3 3 3 4 5
4 2 2 3 4 5 5 6 6 5 5 4 3 2 1 2 3 4 5 5 6 6 6 6 6 5 4 3 3 3 2 2 1 1 1 2 2 2 2 3 3 4 4
5 4 4 5 5 6 6 7 7 7 6 5 4 3 2 2 3 4 4 5 5 5 5 6 5 4 4 3 3 2 2 1 1 1 1 2 3 3 2 3 3 4 4
7 6 6 6 6 6 7 7 8 8 7 6 5 4 3 2 2 3 4 4 5 5 5 5 4 4 3 3 3 2 2 1 0 0 1 2 3 3 3 3 3 4 4
9 8 7 7 6 6 7 8 9 8 8 7 6 5 4 3 2 3 3 4 4 4 4 4 4 4 3 3 2 2 1 1 1 1 1 2 3 3 3 3 4 4 5
10 9 8 8 7 7 8 9 9 10 9 8 8 7 5 4 3 3 3 3 3 4 4 4 3 3 3 3 2 2 1 1 0 1 2 2 3 4 4 4 4 5 5
11 11 9 9 8 8 9 9 10 11 11 11 10 8 7 5 4 3 3 3 3 3 3 3 3 3 3 3 2 2 1 1 0 0 1 2 3 4 4 4 4 5 6
14 11 10 10 10 9 10 10 10 12 12 12 12 10 8 6 5 4 3 2 2 3 3 2 2 3 3 2 2 1 1 1 0 0 1 2 3 4 4 4 4 5 6
15 12 11 12 10 10 10 11 12 13 13 13 13 11 9 8 6 5 3 3 2 2 2 1 2 2 2 2 2 2 1 1 0 0 0 1 2 3 4 5 5 5 6
16 13 11 10 9 10 11 11 11 12 14 13 13 13 11 9 7 5 4 4 2 1 1 0 1 1 2 2 2 2 2 1 1 1 0 1 2 3 3 4 5 5 6
15 12 11 10 9 9 11 11 11 12 12 13 13 13 11 10 8 7 5 5 3 2 1 0 0 1 1 2 2 2 2 1 1 1 1 1 1 2 2 3 4 5 6
13 12 12 8 7 8 10 11 10 11 12 13 13 12 11 10 9 8 7 6 5 3 2 1 0 1 2 2 2 2 2 2 2 2 2 2 1 1 1 2 3 3 5
14 12 10 6 5 7 9 10 11 12 13 14 13 13 12 11 10 9 8 7 6 4 3 2 0 0 1 2 2 1 2 2 2 2 2 2 2 1 0 1 1 2 3
14 11 9 6 5 6 8 10 11 12 13 14 14 14 13 12 10 10 9 8 7 5 4 2 1 1 0 1 1 1 2 2 2 2 2 2 2 2 1 1 1 1 2
13 10 8 6 5 6 7 10 11 13 14 14 15 15 14 13 12 11 10 9 8 7 5 4 3 2 1 1 1 1 2 2 2 2 2 2 2 2 2 2 1 1 2
12 10 7 5 5 6 8 10 12 13 14 15 15 15 15 14 13 12 11 11 10 8 6 5 4 3 2 2 1 1 1 1 1 1 1 1 1 2 2 2 2 2 1
11 9 7 5 5 7 8 10 11 13 15 15 14 16 16 15 14 14 13 11 10 9 8 6 5 4 3 3 3 2 1 1 1 1 0 0 1 1 2 2 2 2 2
10 9 7 4 5 7 9 11 12 13 15 15 16 16 16 15 15 14 14 12 11 10 9 8 7 6 5 4 4 3 2 2 1 1 1 1 1 1 2 2 2 3 3
9 8 6 4 5 7 10 11 13 14 16 16 16 16 16 16 15 15 14 13 12 11 10 9 9 7 7 6 6 5 4 3 2 2 2 2 2 2 3 3 3 4 4
9 8 6 5 4 7 9 12 13 14 16 16 16 16 16 16 16 15 15 14 13 12 12 11 10 9 9 8 8 7 6 5 5 4 4 4 4 4 5 5 6 6 6

GEFSSE_500_meanwind_138.txt.gz
Wind_Speed
5 6 7 7 6 6 6 6 7 8 9 10 10 10 10 10 10 9 9 9 8 8 7 7 6 6 5 5 5 5 5 5 5 5 5 6 6 6 7 7 7 8 8
5 6 7 7 6 6 6 7 7 8 9 9 10 10 10 10 10 9 9 9 8 7 7 6 6 6 5 5 5 5 5 5 5 5 5 5 5 5 6 7 7 7 8
4 5 6 6 6 6 6 6 7 7 8 9 9 9 10 9 9 9 8 8 7 7 6 6 6 5 5 5 4 4 4 5 5 4 4 4 5 5 6 6 7 7 8
3 3 4 5 6 6 6 6 7 7 7 8 9 9 9 8 8 7 7 7 6 6 6 5 5 5 4 4 4 4 4 4 4 4 4 5 5 6 6 6 6 6 7
3 2 3 4 5 6 6 6 6 6 7 8 8 8 8 7 7 7 6 6 6 6 5 5 5 4 4 4 4 4 3 4 4 4 4 4 5 5 6 6 6 7 7
3 2 2 3 4 5 6 6 7 7 7 7 7 7 7 6 6 6 5 5 5 5 5 5 4 4 4 4 3 3 3 4 4 4 4 4 4 5 5 6 6 6 7
3 2 1 2 3 4 5 6 7 7 7 7 7 6 6 5 5 5 4 4 4 4 4 5 4 4 4 3 3 3 3 3 3 3 4 4 5 5 5 5 6 6 6
3 1 1 2 3 4 5 6 6 7 7 7 7 6 6 5 4 4 4 4 4 4 4 4 4 3 3 3 3 3 3 2 2 3 4 5 5 5 5 6 6 6 6
4 3 3 3 4 5 6 7 7 7 7 7 7 7 6 5 4 3 3 3 3 3 3 3 3 3 3 3 2 2 2 2 2 3 4 4 5 5 5 5 5 6 5
6 5 4 4 5 6 7 8 8 8 8 8 8 7 7 6 4 3 2 2 3 3 3 3 3 3 3 2 2 2 2 2 2 3 3 4 5 5 5 5 5 5 5
7 7 5 5 5 6 7 8 9 9 9 9 8 8 7 6 5 3 2 2 2 3 3 3 2 3 3 2 2 2 1 2 2 2 3 4 5 5 5 5 5 5 5
9 8 7 6 6 7 8 9 9 10 10 10 9 9 8 7 5 4 3 3 2 2 2 2 3 3 3 2 2 2 1 2 2 2 3 3 4 5 5 5 5 5 5
10 9 8 7 7 8 8 9 10 10 10 11 11 10 9 8 7 5 4 3 2 2 2 2 3 3 2 2 2 2 1 1 1 2 2 3 4 4 5 4 4 5 5
12 12 10 9 8 9 9 9 10 11 12 12 12 11 10 9 8 6 5 3 2 2 3 3 2 2 2 2 2 1 1 1 1 1 2 3 3 4 4 4 4 5 5
14 12 11 9 9 10 11 11 11 12 12 12 12 11 11 9 9 8 6 4 3 3 3 3 2 2 2 3 2 1 1 1 1 1 2 2 3 3 3 4 4 5 5
14 12 11 10 10 10 11 12 11 13 13 12 12 12 12 11 10 8 7 5 4 3 3 2 2 2 2 2 2 1 1 1 1 1 1 1 1 3 3 4 4 4 5
14 13 10 9 10 10 10 11 13 13 13 14 13 13 13 12 11 10 8 6 5 4 3 2 2 2 2 2 2 2 2 2 1 1 1 1 1 1 2 2 3 3 4
14 13 11 10 10 9 10 11 13 14 14 14 14 14 13 13 12 11 9 7 6 5 4 3 3 2 2 2 2 2 2 2 2 2 2 2 1 1 1 1 1 2 2
14 12 11 10 9 8 9 10 13 14 14 14 14 14 14 14 13 12 10 8 7 6 5 3 3 2 2 2 2 2 3 3 3 2 2 2 2 2 1 1 0 0 1
13 12 11 9 8 8 9 11 12 14 16 15 15 15 15 15 14 13 11 10 8 7 5 4 3 2 2 2 2 2 3 3 2 2 2 2 2 2 2 1 1 1 1
12 11 10 9 7 7 9 11 12 14 15 15 15 15 15 15 15 13 12 11 10 8 7 5 4 3 3 2 2 2 2 2 2 1 1 1 1 2 2 1 1 1 1
11 11 9 8 7 7 9 11 13 14 15 15 15 15 16 16 15 14 12 11 11 9 8 6 5 4 3 3 3 2 2 1 1 1 1 1 1 0 1 2 2 2 1
11 10 9 8 7 7 9 11 12 13 14 14 15 16 17 17 16 15 13 13 12 10 9 8 6 5 4 4 4 3 2 2 1 1 2 2 1 1 1 2 2 2 2
11 10 9 8 6 7 8 10 11 12 14 15 16 17 17 17 17 16 15 14 13 11 10 9 8 7 6 6 5 5 4 3 2 2 2 2 2 2 2 3 3 3 3
10 10 9 8 6 6 8 9 10 12 14 16 16 17 18 18 17 17 16 15 14 13 12 11 9 8 7 7 7 6 6 5 4 4 4 3 3 3 3 4 4 4 4
10 9 8 7 6 6 7 9 10 11 14 15 17 18 18 18 18 17 17 16 15 15 13 12 11 10 9 9 9 8 7 7 7 6 6 5 5 5 5 5 5 6 6

GEFSSE_500_meanwind_144.txt.gz
Wind_Speed
1 2 3 4 5 5 4 4 4 4 4 4 5 5 6 6 6 6 6 5 5 5 5 5 5 4 4 4 4 4 4 4 3 3 3 3 4 4 4 5 6 6 7
1 2 3 4 4 4 4 4 4 4 4 4 5 5 5 6 5 5 5 5 4 4 4 4 4 3 3 3 3 4 3 3 3 3 3 3 3 4 5 6 6 6 6
1 2 3 4 4 4 4 4 4 4 4 5 5 5 5 5 5 5 4 4 4 3 3 3 3 3 3 3 3 3 3 3 3 4 4 3 3 4 5 6 6 6 6
1 2 3 4 4 4 4 4 5 5 5 5 5 5 5 5 5 4 4 3 3 3 3 3 2 2 2 3 3 3 3 3 3 4 4 3 4 4 4 4 5 5 5
1 1 2 4 4 5 5 5 5 5 6 5 5 5 5 4 4 4 3 3 2 2 2 2 2 2 2 2 2 2 2 2 3 3 3 3 4 4 4 4 4 4 5
1 1 1 3 4 4 4 5 5 5 6 6 6 5 5 4 4 3 2 2 2 2 2 2 2 2 2 2 1 2 2 2 2 3 2 3 3 3 3 3 3 3 4
2 1 0 1 3 3 4 5 6 6 6 6 6 6 5 4 3 3 2 2 2 2 2 3 3 2 2 1 1 2 2 2 2 2 2 2 2 3 3 3 2 2 3
3 2 1 2 3 4 4 5 6 7 7 7 7 6 5 4 3 3 2 2 2 2 3 3 2 2 2 1 1 2 2 1 2 1 2 2 2 2 3 2 2 2 2
5 4 3 3 3 4 5 6 7 7 8 8 7 6 6 5 3 3 2 1 1 2 3 2 2 2 1 1 1 2 1 1 1 2 2 2 2 2 2 2 2 2 1
7 6 5 5 5 5 7 8 8 8 8 8 8 7 6 5 4 3 2 1 2 2 2 2 2 1 1 1 1 1 1 1 1 2 2 2 2 2 2 2 2 2 1
8 7 8 7 6 6 7 8 9 9 9 9 9 8 7 6 5 4 2 2 2 2 2 1 1 1 1 1 1 1 2 1 2 1 1 2 2 2 2 2 2 2 2
11 10 10 8 8 8 8 9 9 9 10 10 10 10 8 7 6 4 3 2 2 2 1 2 2 2 1 1 2 2 2 1 1 0 1 2 2 2 2 2 2 2 3
12 12 12 10 10 8 8 8 9 8 10 11 10 10 9 8 6 5 4 2 2 2 1 1 2 2 2 1 1 2 1 2 1 0 1 1 2 2 2 2 2 2 3
13 13 13 12 11 8 7 8 9 10 10 11 11 10 10 9 7 6 4 3 2 1 1 1 2 2 1 1 1 1 1 1 1 1 1 1 1 1 2 3 3 3 3
14 15 15 14 11 9 8 9 9 10 11 11 11 10 10 9 7 6 4 3 2 2 1 1 2 2 1 1 1 1 1 1 1 1 1 1 0 1 1 2 3 3 3
15 15 16 14 12 11 10 10 10 9 10 10 10 10 9 9 8 6 5 3 3 2 2 1 2 2 1 1 1 1 1 1 1 1 1 1 0 1 1 1 2 3 3
16 16 16 14 13 12 11 10 10 9 10 10 10 10 10 9 8 7 6 4 3 3 2 2 1 1 1 1 1 1 1 2 1 2 2 1 1 0 0 0 1 2 2
17 16 16 15 14 13 12 10 9 9 10 10 11 11 11 10 9 8 7 5 5 4 3 2 1 1 1 1 2 2 2 2 2 3 3 2 2 2 2 1 1 0 0
17 16 16 15 15 12 10 7 7 8 9 10 10 11 12 11 10 9 8 7 6 4 3 2 2 2 1 2 2 2 2 3 3 3 3 3 3 3 3 3 2 1 1
17 16 16 14 13 10 8 6 6 8 9 10 10 11 12 12 11 10 9 8 7 6 4 3 2 2 2 2 2 2 2 2 3 3 3 3 3 3 3 3 2 2 1
17 16 15 13 11 9 6 6 6 7 9 11 11 12 12 12 12 11 10 9 8 7 5 4 3 3 2 2 2 2 2 2 1 1 2 2 2 2 3 3 2 2 2
16 15 14 13 11 9 7 6 6 7 8 10 11 11 12 13 12 12 11 10 8 8 7 6 5 4 3 2 2 2 1 1 1 0 1 1 1 2 2 2 2 2 2
15 14 12 11 10 9 7 6 5 6 7 8 11 12 13 13 13 13 12 11 10 9 8 7 6 5 4 4 3 2 2 1 1 1 1 0 0 1 1 2 2 2 2
14 13 11 11 9 8 7 6 6 6 7 9 10 11 13 13 13 13 13 12 11 11 10 9 8 7 6 5 5 4 3 3 3 2 2 2 2 1 2 2 3 2 2
13 11 10 10 10 8 7 6 6 7 8 9 11 12 12 13 13 13 13 13 12 12 11 11 10 9 8 7 7 6 5 5 5 4 3 4 3 3 3 3 3 3 4
12 10 10 9 9 8 6 5 5 6 7 9 11 13 13 14 14 14 13 13 13 13 13 12 12 11 10 9 9 8 8 7 7 7 7 6 6 6 5 5 5 5 5

GEFSSE_500_meanwind_150.txt.gz
Wind_Speed
4 4 3 3 3 3 2 2 2 2 2 2 2 2 1 1 1 1 1 2 2 2 2 2 3 2 3 3 3 3 3 3 3 4 4 5 5 5 5 6 6 7 7
4 3 3 2 2 2 2 1 1 2 2 2 2 2 2 2 1 1 1 1 1 1 1 1 2 1 2 2 2 3 3 3 3 4 4 5 5 5 5 6 6 6 6
4 3 3 2 2 2 1 1 1 1 2 2 2 3 3 3 2 1 1 1 1 1 0 1 1 1 1 2 3 3 2 2 3 4 4 4 5 6 6 6 5 5 5
4 3 2 2 1 1 0 0 1 2 2 2 2 3 3 3 3 3 2 2 2 2 1 0 0 1 1 2 2 2 2 3 3 4 4 5 5 5 6 5 5 5 5
5 4 2 1 1 1 1 1 1 2 3 3 3 3 3 3 3 3 3 3 3 3 2 1 0 1 1 2 2 2 2 3 4 4 4 5 5 5 5 5 5 5 5
6 4 2 1 1 1 2 2 3 2 3 3 3 3 3 4 4 4 4 4 4 3 3 1 1 1 1 1 2 2 2 2 3 3 4 4 4 5 5 5 6 6 6
6 5 3 1 1 2 2 3 3 3 4 4 4 3 4 4 4 4 4 4 4 4 3 1 1 0 0 1 1 1 2 2 2 3 3 3 4 4 4 5 5 5 5
7 5 4 2 1 2 3 4 3 3 3 4 4 4 4 4 4 4 4 4 4 3 2 1 1 0 0 1 1 1 1 2 2 2 3 3 3 4 4 4 4 5 4
6 5 5 3 2 2 3 4 4 4 4 4 4 4 4 4 4 4 4 4 3 3 2 1 1 0 0 1 1 1 2 3 2 3 3 3 3 3 4 4 4 4 4
7 6 6 5 4 4 4 4 5 5 5 5 5 5 5 4 4 3 4 3 3 3 2 2 1 0 0 1 1 1 2 3 3 3 3 3 3 3 3 4 4 4 4
8 7 7 6 5 4 4 4 5 5 6 6 6 5 5 4 4 3 3 3 3 3 2 1 1 1 1 1 1 1 2 3 3 3 3 3 3 3 3 4 4 4 4
9 7 7 8 7 6 4 5 6 5 5 6 6 6 5 4 3 3 3 3 3 2 2 1 0 0 1 2 2 1 2 2 2 2 3 3 3 3 3 3 4 4 4
10 9 9 9 9 7 5 4 6 6 6 6 5 6 5 5 4 4 3 3 2 2 1 1 0 1 1 2 2 1 1 2 2 2 3 3 3 3 4 3 4 4 4
11 11 10 10 10 8 5 4 5 7 7 7 7 6 6 6 5 4 4 3 2 1 1 1 1 1 1 1 2 1 1 1 2 2 2 3 3 3 4 4 4 4 4
11 11 10 10 10 9 6 5 5 6 7 7 7 8 7 6 5 4 4 3 2 1 1 1 0 1 1 1 1 1 1 1 1 2 2 2 3 3 3 4 4 4 4
12 11 11 11 10 10 6 4 4 5 6 7 8 8 8 7 6 5 4 3 2 2 2 1 1 0 1 1 1 1 1 1 1 1 1 2 2 3 3 3 4 4 4
12 13 12 12 12 10 7 4 4 4 5 6 7 8 8 8 7 5 5 4 3 3 2 1 1 1 0 1 1 1 1 2 1 2 2 2 2 2 3 3 3 3 3
13 13 13 12 12 11 8 4 3 4 5 6 8 8 8 9 8 7 6 5 5 4 3 2 2 1 1 1 1 1 1 2 2 2 2 2 2 2 2 2 2 3 3
14 13 13 13 12 10 7 4 3 4 6 7 8 8 9 9 9 8 7 6 6 5 4 3 2 2 1 1 1 1 1 1 1 1 1 2 2 2 2 1 2 3 3
14 13 13 13 12 9 6 4 2 3 6 7 8 9 10 10 10 9 7 7 6 6 5 4 3 3 2 2 2 2 1 1 1 1 1 2 2 2 2 2 1 2 3
13 12 12 12 10 8 5 3 3 3 5 7 8 10 10 10 10 10 9 8 8 7 6 5 4 4 3 2 2 2 2 1 1 1 1 1 1 1 2 2 2 2 3
12 12 12 11 9 7 5 2 2 3 5 7 8 10 10 10 10 10 10 10 10 9 8 6 6 5 4 3 3 2 2 2 1 1 1 2 2 2 2 2 3 3 2
12 12 11 10 8 7 5 3 2 3 4 6 8 10 11 10 11 11 11 10 11 10 9 8 7 6 5 5 4 4 3 3 2 3 2 3 3 3 4 4 3 3 3
12 11 10 9 7 6 6 4 3 4 4 5 8 9 10 11 12 12 11 11 11 11 10 9 9 8 7 6 6 6 5 5 4 4 4 4 5 5 5 5 4 4 4
11 10 9 8 7 7 6 5 4 4 4 5 7 9 10 10 12 13 13 12 12 12 11 11 10 9 9 8 8 7 7 7 6 6 6 6 6 6 7 7 6 6 5
10 10 9 8 7 7 6 6 5 4 4 5 7 9 10 11 12 13 13 13 13 13 13 12 11 11 10 10 9 9 9 8 8 8 8 8 8 8 8 8 8 8 7

GEFSSE_500_meanwind_156.txt.gz
Wind_Speed
5 4 4 4 5 6 8 8 9 9 9 8 8 7 7 7 7 6 6 6 5 5 4 4 3 3 3 3 3 3 3 4 4 4 5 5 5 6 7 7 7 7 7
5 4 4 4 5 6 7 8 8 8 8 7 7 7 7 7 6 6 6 6 5 5 4 4 4 3 3 3 3 3 3 4 4 4 4 5 5 6 6 6 6 6 7
4 3 4 4 5 6 7 7 7 7 7 7 7 7 7 6 6 6 5 5 5 5 4 4 3 3 2 2 3 3 3 3 3 4 4 4 5 5 5 5 5 6 6
4 3 3 4 4 5 5 6 6 6 6 6 6 6 6 6 6 6 6 6 5 5 5 4 3 3 3 3 3 3 2 2 3 4 4 4 4 5 5 5 5 5 5
4 4 4 4 4 4 5 5 5 5 5 6 6 6 6 6 6 6 6 6 6 6 5 4 4 3 3 2 2 2 2 2 3 3 4 4 4 4 5 4 5 5 6
5 5 4 4 4 4 5 5 4 4 4 5 5 6 6 6 6 6 7 6 6 6 5 4 4 3 3 2 2 2 2 2 3 3 3 4 4 4 4 4 4 5 5
6 6 5 4 4 4 4 3 3 4 4 4 5 5 5 5 6 6 7 7 6 6 5 4 3 3 2 2 2 2 2 2 2 2 3 3 3 3 3 3 3 4 4
7 6 5 4 3 2 2 2 2 2 2 3 3 4 4 5 5 6 6 6 6 5 5 4 4 3 3 2 2 1 1 2 2 2 2 2 2 2 2 2 3 3 4
8 7 6 5 3 1 1 0 1 1 1 1 2 2 3 4 5 5 6 6 6 5 5 4 4 3 3 2 2 1 1 1 1 1 1 1 2 2 2 2 2 2 3
9 8 7 6 5 2 1 1 0 1 1 1 1 1 2 3 4 4 5 5 6 5 4 3 3 3 3 2 2 2 1 1 1 1 1 1 2 1 1 1 1 1 2
10 9 9 8 6 5 3 2 1 1 1 1 1 1 1 1 2 3 4 4 5 4 4 3 3 3 3 2 2 2 1 1 1 0 1 1 1 1 1 2 1 1 2
10 10 9 8 7 6 4 2 2 3 3 2 2 1 1 0 1 2 3 3 4 4 3 3 3 3 3 3 2 1 1 1 0 0 1 1 1 1 2 2 2 2 2
10 10 10 9 9 8 5 2 2 3 3 3 3 2 1 1 0 0 1 2 3 3 3 3 3 3 3 2 2 1 1 0 0 0 1 1 1 2 2 2 2 2 2
11 10 10 9 9 8 5 2 2 3 4 4 4 3 3 2 1 1 1 1 2 2 2 2 2 2 2 2 1 1 1 0 0 1 1 2 2 2 2 3 3 3 3
11 11 10 9 8 7 6 2 1 2 4 4 4 4 4 4 3 2 2 1 1 1 1 1 1 1 1 1 1 1 1 1 1 1 1 2 2 3 3 3 3 3 3
12 11 10 9 8 7 6 4 2 3 3 5 5 5 5 4 4 3 3 2 2 2 1 1 1 1 1 1 1 1 1 1 1 1 1 1 2 2 3 3 3 3 3
12 11 10 10 9 8 7 5 3 3 4 5 6 6 6 5 5 4 4 4 3 2 1 1 0 1 1 1 1 1 1 2 2 1 1 1 2 2 2 2 3 3 3
12 12 10 10 10 8 7 5 3 3 4 6 6 7 6 6 6 6 5 4 4 3 2 1 1 1 1 1 1 1 1 1 2 2 1 1 1 2 2 2 3 3 3
12 12 11 10 10 8 6 6 3 2 4 4 6 7 7 7 7 6 5 5 4 3 2 2 1 1 1 1 1 1 1 1 1 2 2 1 1 2 2 3 3 3 3
12 12 10 10 9 8 6 6 3 2 2 3 6 7 8 8 8 7 6 6 5 5 4 3 2 1 1 0 0 1 1 1 1 2 2 2 2 2 2 3 3 3 4
12 10 10 9 9 8 7 6 4 3 2 3 6 8 8 9 9 8 8 7 6 6 5 4 3 2 2 1 1 1 1 1 2 2 2 2 3 3 3 3 3 3 4
11 10 9 9 8 7 6 5 3 3 3 4 6 8 9 9 9 10 9 9 8 8 7 5 5 4 3 3 2 2 2 2 3 3 3 4 3 3 4 4 4 4 5
10 9 9 9 8 7 6 4 3 3 4 5 6 7 9 10 10 10 10 11 10 9 9 8 7 6 5 5 4 4 4 4 4 4 4 5 5 5 5 5 5 5 5
10 9 10 9 8 6 6 5 4 4 4 5 6 7 9 10 10 11 11 12 12 11 10 9 8 8 7 7 6 6 6 6 6 6 6 6 6 6 6 6 6 6 6
11 10 10 9 7 6 5 5 5 4 4 4 5 7 9 10 11 11 11 12 13 12 12 11 10 9 9 8 8 8 8 8 8 8 8 8 8 8 7 7 7 8 8
11 10 10 8 7 6 6 6 5 5 5 6 6 7 8 10 12 12 13 13 13 13 12 12 12 11 10 10 10 9 9 9 9 9 9 9 9 9 10 10 10 10 10

GEFSSE_500_meanwind_162.txt.gz
Wind_Speed
7 7 6 6 6 7 7 8 9 10 10 11 11 11 11 10 10 10 9 8 7 6 6 5 5 5 4 4 4 4 4 4 4 4 4 4 4 5 6 6 6 6 6
7 6 5 6 6 6 7 8 9 9 10 10 10 10 10 10 9 9 8 8 7 6 5 5 5 4 4 4 4 4 4 4 4 4 4 4 4 5 5 6 6 6 6
6 5 5 4 5 5 6 7 8 8 9 9 9 9 9 9 8 8 8 7 6 5 5 5 4 4 4 4 4 4 4 4 4 4 4 4 4 4 5 5 5 5 6
6 5 4 3 4 5 5 6 7 8 8 8 9 9 8 8 8 7 7 6 6 5 5 5 4 4 4 4 4 4 4 4 4 4 4 3 3 4 4 4 4 4 5
6 5 4 3 3 4 5 6 6 7 8 8 8 8 8 7 7 7 6 6 6 5 5 5 4 4 4 4 4 4 3 4 4 4 3 3 3 4 4 4 4 4 5
6 5 3 3 4 4 5 5 6 7 8 8 8 8 8 7 7 7 7 6 6 6 5 5 5 5 4 4 4 4 4 4 4 4 3 3 3 3 3 3 4 4 4
6 5 4 3 3 4 4 5 6 6 7 8 7 7 7 7 7 7 7 6 6 6 5 5 5 5 4 4 4 4 4 4 4 4 3 3 3 3 3 3 4 4 4
7 5 4 3 3 3 4 4 5 6 6 7 7 7 7 7 7 7 6 6 6 6 6 6 5 5 5 4 4 5 5 4 4 3 3 2 2 3 2 2 3 3 3
9 7 5 3 2 2 3 4 5 6 6 6 6 6 6 6 6 6 5 5 5 6 6 6 5 5 5 5 4 4 4 3 3 3 2 2 2 2 2 2 2 3 3
10 8 6 5 3 1 2 3 4 5 5 5 6 6 5 5 5 5 5 5 5 5 5 5 5 5 4 4 4 3 3 3 3 3 2 2 2 2 2 2 2 2 2
9 8 7 6 5 3 2 2 4 5 5 5 6 6 5 5 5 5 4 4 5 5 5 5 5 5 4 4 4 3 3 3 2 2 2 2 1 2 2 2 2 2 2
9 8 7 6 5 3 1 2 4 5 5 5 5 5 5 4 4 4 4 4 4 4 5 5 5 5 4 4 3 3 2 2 2 2 1 1 2 2 2 2 1 1 2
9 8 7 6 4 3 1 1 3 4 5 5 5 5 4 4 4 4 4 4 4 4 4 4 5 4 4 3 3 2 2 1 1 1 1 1 1 1 2 2 1 1 1
10 9 7 6 5 4 1 0 2 3 4 5 5 4 4 4 4 4 4 4 3 3 4 4 4 4 3 3 2 2 2 1 1 1 1 2 1 1 1 1 2 1 1
11 10 9 7 6 5 2 0 2 3 3 5 5 4 4 4 4 4 4 4 3 3 3 3 3 3 3 3 2 2 1 1 1 0 1 1 1 1 1 1 1 1 2
11 10 9 8 8 7 4 1 2 3 4 5 6 5 5 5 5 5 4 4 3 3 2 2 2 2 2 2 2 1 1 0 1 1 1 1 1 1 1 1 2 2 2
12 11 10 9 8 7 5 2 2 2 3 5 6 6 6 6 6 6 5 5 4 3 2 2 2 2 2 2 2 1 0 0 1 1 1 1 2 2 2 2 2 2 2
13 12 11 10 9 7 6 3 1 2 3 4 5 6 6 6 6 6 6 5 4 3 3 2 2 2 2 2 2 1 1 1 0 0 0 0 1 2 2 2 2 2 3
13 12 11 10 9 7 5 4 2 2 3 3 5 6 7 7 6 7 7 6 6 5 4 3 3 2 2 2 2 1 1 0 0 0 1 1 1 2 2 3 3 3 3
13 12 10 9 9 7 6 5 3 2 3 3 4 5 7 7 7 7 7 7 6 5 4 4 3 3 3 3 2 1 1 1 1 1 2 2 2 2 2 3 4 4 4
12 11 9 8 8 8 6 5 4 3 3 3 4 6 7 8 8 8 8 8 7 6 5 5 4 4 3 3 2 2 2 2 2 2 2 3 3 3 4 4 4 5 5
11 10 9 8 8 8 6 5 4 4 3 3 4 5 6 7 7 8 8 8 8 8 7 6 5 4 4 4 3 3 3 3 4 4 4 4 4 4 4 4 5 5 5
10 9 9 9 9 7 6 5 4 4 4 5 5 6 6 7 8 8 8 8 8 9 8 8 7 6 6 5 5 4 4 4 5 5 5 5 5 5 6 6 6 6 6
10 10 9 9 9 8 7 6 6 5 6 5 6 7 7 6 7 8 9 9 8 9 9 9 8 7 7 7 7 6 6 6 6 6 7 7 7 7 7 7 8 8 7
10 9 8 8 8 7 7 7 6 6 6 6 7 8 8 8 8 9 10 10 10 10 10 10 10 9 9 8 8 8 8 8 8 8 8 9 9 9 9 9 9 10 10
10 9 8 8 7 7 7 7 7 6 6 7 7 7 8 8 9 9 10 11 11 11 12 12 12 11 11 10 10 10 10 10 10 10 10 11 11 11 11 11 11 12 12

GEFSSE_500_meanwind_168.txt.gz
Wind_Speed
5 4 4 3 3 2 2 2 2 3 4 4 5 5 5 5 6 6 5 5 5 5 6 6 5 6 6 5 6 6 6 5 5 5 5 5 6 6 6 4 4 5 5
5 4 3 3 2 2 1 2 2 2 3 3 4 5 5 5 5 5 5 5 5 5 5 5 5 5 5 5 5 5 5 5 5 5 5 5 6 6 5 5 4 5 6
5 4 3 2 2 1 0 1 1 2 2 2 3 4 4 4 4 4 4 4 4 4 4 4 4 4 4 5 5 5 5 5 5 6 6 5 6 5 5 4 5 5 5
5 4 4 3 2 1 1 1 1 1 2 2 2 3 3 3 3 3 4 4 4 4 4 4 4 5 5 5 4 5 5 5 5 5 5 6 5 5 4 4 4 4 4
5 5 4 3 3 1 1 1 1 2 2 2 2 2 2 3 3 3 3 3 4 4 4 4 4 5 5 4 4 4 4 4 5 4 4 5 5 4 4 4 4 3 4
6 5 4 3 2 2 1 1 1 1 2 2 2 1 2 2 2 3 3 3 4 4 4 4 4 5 5 4 4 4 4 4 5 5 4 5 4 4 4 4 3 3 3
6 6 4 3 2 2 1 1 1 2 2 2 1 1 2 2 2 2 3 3 4 4 4 4 4 4 4 4 4 4 3 4 4 4 3 4 4 4 3 3 3 2 3
8 7 6 4 2 2 2 2 2 2 2 2 1 1 1 1 1 2 2 2 3 3 4 4 4 4 5 4 4 4 3 4 4 3 3 4 4 4 3 3 2 2 2
9 8 7 6 3 3 2 2 3 3 2 2 2 1 1 0 1 1 2 2 2 3 3 4 4 4 4 4 4 3 3 3 3 2 3 3 3 3 3 3 2 2 2
10 9 7 6 4 3 3 3 3 3 3 3 2 1 1 0 1 1 2 2 2 3 3 3 4 4 4 4 3 3 3 2 2 1 2 2 2 2 2 2 2 2 1
11 10 9 7 5 4 3 3 3 3 3 3 3 2 2 1 1 2 2 2 2 3 3 3 3 3 3 3 3 3 3 2 1 1 2 2 2 2 2 2 2 2 1
12 11 11 9 8 5 4 2 2 3 3 3 3 3 2 2 1 2 2 3 3 3 3 3 3 3 3 2 2 2 2 2 1 1 2 1 2 1 1 1 1 1 1
13 12 11 10 9 7 5 3 2 2 3 4 3 3 3 2 2 2 2 2 3 3 3 3 3 2 2 2 1 1 1 1 1 1 1 1 1 1 1 0 1 1 1
14 13 12 11 10 8 6 4 3 2 3 4 3 3 3 3 1 1 2 2 2 2 2 2 2 2 2 2 1 0 0 1 1 1 0 0 0 0 0 0 0 1 1
14 14 13 11 10 9 6 5 4 3 2 3 3 3 3 3 2 2 2 3 3 2 2 2 2 2 2 1 1 0 0 1 0 0 1 1 1 1 1 1 1 1 1
15 14 13 12 11 10 8 6 4 3 3 3 4 4 4 4 3 2 2 3 3 2 2 2 1 2 2 1 1 1 1 0 0 1 1 1 1 1 1 1 2 2 2
15 15 14 12 11 10 8 6 5 3 2 2 3 4 5 5 5 4 4 3 3 3 2 2 2 2 2 2 2 1 1 1 1 1 1 1 1 1 2 2 2 2 2
16 16 14 13 11 10 8 7 5 4 3 2 3 3 5 5 5 5 5 4 4 3 3 3 2 2 2 2 1 1 1 2 2 1 1 1 1 2 2 3 3 3 3
17 16 14 13 12 10 9 8 5 4 4 4 3 4 4 5 6 5 5 5 4 4 3 2 2 2 2 2 2 2 2 2 1 1 1 1 2 2 3 3 4 3 4
17 16 15 13 13 12 10 8 6 5 5 4 3 3 4 5 6 6 6 6 5 4 4 3 3 3 3 2 2 2 2 2 2 2 2 2 2 3 3 4 4 4 4
17 16 14 13 14 13 11 10 8 6 6 5 4 4 4 5 6 7 6 7 6 5 4 4 5 4 4 4 3 3 3 3 3 3 4 4 4 4 4 4 4 5 5
18 17 15 14 13 12 12 11 9 8 6 5 5 4 4 5 5 6 7 7 6 6 6 5 6 6 5 5 4 4 4 4 4 4 5 5 5 5 5 5 6 6 6
18 17 15 14 13 12 11 11 10 8 7 6 6 5 6 6 6 6 6 6 6 6 6 7 7 7 6 6 6 6 5 5 5 5 6 6 6 6 7 7 7 7 7
18 17 15 14 13 12 11 11 10 9 8 7 6 7 7 7 7 7 7 7 7 7 7 7 7 7 7 7 7 7 7 7 7 7 8 7 8 9 9 8 8 8 9
17 16 15 15 13 12 12 11 10 9 9 8 7 7 7 7 7 7 7 7 8 8 8 8 8 9 9 9 8 9 9 8 8 9 9 9 10 10 10 10 10 10 11
17 15 15 15 14 13 12 11 10 9 8 8 7 6 7 7 7 7 8 8 8 9 9 9 10 10 11 11 11 10 11 11 11 11 11 11 11 12 12 12 12 12 13

GEFSSE_500_meanwind_174.txt.gz
Wind_Speed
7 7 7 6 6 5 5 4 4 4 3 3 2 2 2 2 2 2 2 3 4 4 5 5 5 5 5 6 6 6 6 6 6 6 6 6 6 6 6 6 6 6 6
8 8 7 6 6 5 5 4 4 4 3 3 2 2 2 2 2 2 2 2 3 3 4 4 4 5 5 5 6 6 6 6 6 6 6 6 6 6 6 6 6 6 6
8 7 6 5 5 5 4 4 4 3 3 3 3 3 2 1 1 2 2 1 2 3 3 3 4 4 4 5 5 5 6 6 6 6 6 5 6 5 5 5 6 6 6
8 7 6 6 5 5 4 4 3 3 3 3 3 3 2 2 2 2 2 2 2 2 2 3 3 4 4 5 5 5 5 6 6 6 5 5 5 5 5 5 5 6 6
9 7 7 6 5 4 4 3 3 2 2 2 3 3 2 2 2 2 2 1 2 2 2 3 3 3 4 4 4 4 5 5 5 5 5 4 4 5 5 4 5 6 5
9 8 7 5 5 4 4 3 2 2 2 2 2 3 3 3 2 1 1 1 1 2 2 3 3 3 4 4 4 4 5 4 5 4 4 4 4 4 4 5 5 5 5
10 9 7 6 5 4 4 3 2 2 2 2 2 3 3 3 2 1 1 1 1 2 2 2 3 4 4 4 4 4 4 4 4 4 4 4 3 4 4 4 4 4 4
10 9 8 6 5 4 3 2 2 2 2 2 2 2 3 2 1 1 1 1 1 2 2 2 3 4 4 4 4 4 3 4 4 4 3 3 3 3 4 4 4 3 3
10 10 9 7 6 4 3 2 2 1 1 1 1 2 2 2 1 1 1 1 1 1 1 2 2 3 4 4 3 3 3 4 4 3 3 3 3 3 3 3 3 3 3
11 11 10 9 7 5 4 3 2 1 0 1 1 1 2 2 1 1 1 1 1 1 1 2 2 3 3 3 3 3 3 3 3 2 2 2 2 3 3 3 3 2 2
12 12 10 9 8 6 5 4 3 1 1 1 1 1 1 1 1 1 1 1 1 1 1 2 2 3 3 3 3 2 2 2 2 2 2 2 2 2 2 2 2 2 2
14 13 11 10 9 7 6 4 3 2 1 1 1 1 1 1 1 0 1 1 1 1 2 2 2 2 2 2 2 1 1 1 2 2 2 2 2 2 2 2 2 1 1
15 13 12 10 8 7 6 5 4 3 2 1 1 1 1 0 0 0 1 1 1 1 1 1 1 1 1 2 2 1 0 0 1 1 1 1 1 1 1 1 1 1 0
16 15 13 11 9 8 7 6 4 4 2 1 1 1 1 1 1 1 2 2 2 1 1 1 0 1 1 1 1 0 1 1 1 1 1 0 0 1 0 0 0 0 1
16 15 14 12 10 8 7 6 4 3 2 1 1 2 2 2 2 2 2 2 2 1 1 1 1 1 0 0 0 1 1 1 1 1 1 1 1 1 1 1 0 1 1
17 16 15 13 11 9 8 6 5 4 2 1 2 1 2 2 2 2 2 2 2 1 1 1 1 1 1 1 1 1 1 1 1 1 2 1 1 1 2 2 2 2 2
18 17 15 13 13 11 9 6 5 5 3 1 1 1 1 2 2 3 2 3 2 2 2 1 1 1 1 2 2 1 1 2 2 2 2 1 1 2 2 3 3 3 3
18 17 16 15 14 13 10 8 7 5 3 2 1 0 0 1 2 2 3 3 3 3 2 2 2 1 2 2 2 2 2 2 2 2 2 2 2 2 3 3 4 4 4
17 17 17 16 14 13 11 9 8 6 4 3 1 1 0 1 1 2 2 3 3 3 3 3 3 3 2 2 2 2 2 2 3 2 2 3 3 3 3 4 4 5 5
16 17 17 16 14 13 11 10 9 7 5 3 2 1 1 1 2 2 3 3 3 3 3 3 3 4 3 3 3 3 3 3 3 3 3 4 4 4 4 4 4 5 5
17 16 17 16 14 13 12 11 10 8 6 4 3 1 1 2 2 3 3 4 3 3 4 4 4 5 4 4 4 4 4 4 4 4 5 5 6 6 6 6 6 6 6
17 17 16 16 14 13 12 11 10 9 8 5 4 2 2 2 2 3 3 4 4 4 4 4 4 5 6 6 6 5 5 5 5 5 6 6 7 8 8 8 8 8 8
17 17 16 15 15 13 11 11 9 9 8 7 6 4 3 3 3 3 4 4 4 4 5 5 5 5 5 6 7 7 6 7 7 7 7 7 8 8 9 10 10 10 10
16 16 15 14 14 14 12 10 9 8 8 8 8 5 4 3 4 4 4 5 5 5 6 6 6 6 6 6 7 8 8 8 9 9 9 9 10 10 10 10 11 12 12
15 15 15 15 14 13 13 11 9 9 8 8 7 6 4 3 3 3 4 5 6 6 6 7 8 7 8 9 9 9 9 9 9 9 10 11 11 12 12 12 13 14 14
14 14 14 14 14 13 12 11 10 9 9 8 8 7 5 4 3 3 3 5 6 6 6 6 7 8 9 10 10 11 11 11 11 11 12 12 13 13 13 14 14 15 15

GEFSSE_500_meanwind_180.txt.gz
Wind_Speed
6 6 6 7 8 8 9 9 10 9 9 8 8 7 7 7 6 5 5 4 4 4 4 4 5 5 6 6 6 6 5 5 5 5 5 5 5 5 5 5 5 5 5
6 6 6 7 7 8 8 9 9 9 8 8 8 7 7 7 6 5 5 4 4 4 4 4 4 5 5 5 6 5 5 4 5 5 4 4 5 5 5 5 5 5 5
7 6 6 7 7 7 7 8 8 8 8 8 8 7 7 6 6 5 5 4 4 4 4 4 4 4 4 5 5 5 4 5 5 5 5 4 4 5 5 5 5 5 5
6 6 7 7 7 7 7 7 7 7 7 7 7 7 7 6 6 5 5 5 4 4 4 3 3 4 4 4 4 4 4 4 4 5 4 4 4 4 4 4 4 4 4
6 7 7 7 7 7 7 7 7 7 7 7 7 7 6 6 6 5 5 5 5 4 4 3 3 3 3 3 3 3 4 4 4 4 4 4 4 4 3 3 4 4 4
7 7 8 8 7 7 7 6 6 6 6 6 6 6 7 6 6 6 5 5 5 4 4 4 4 4 4 3 3 3 4 3 4 4 3 3 3 3 3 3 4 4 4
9 8 8 8 8 7 6 6 6 6 5 5 6 6 6 6 6 5 5 5 4 4 4 4 4 4 4 4 3 3 3 3 3 3 3 3 3 2 3 3 3 3 3
10 10 9 9 8 7 6 6 5 5 4 4 5 5 6 6 6 5 5 5 5 4 4 4 4 5 4 4 4 4 3 3 4 4 4 3 3 3 3 3 3 3 2
11 11 10 9 8 7 6 5 5 4 4 4 4 4 5 5 5 5 4 5 4 4 4 4 4 4 4 4 4 4 4 3 3 3 4 3 3 3 3 3 2 2 2
12 11 10 9 8 7 6 5 5 4 4 3 3 3 4 4 4 4 4 4 4 4 4 4 4 4 4 4 4 4 4 3 3 3 3 3 3 3 2 2 2 1 1
12 11 11 9 8 7 7 6 5 4 4 3 3 3 4 4 4 4 4 4 4 4 4 3 3 3 3 3 3 4 3 3 3 2 2 2 2 2 2 2 1 1 1
13 12 11 9 8 8 7 6 5 4 4 3 3 3 3 3 4 4 4 3 3 3 3 3 3 2 2 3 3 3 3 2 2 2 2 2 2 2 2 1 1 1 1
14 12 11 9 8 7 6 6 5 4 3 3 2 2 2 2 2 3 3 2 2 2 2 2 2 2 2 2 2 2 2 2 3 2 2 2 1 1 1 1 2 1 1
15 13 12 11 9 7 6 6 5 4 3 2 1 1 1 1 1 2 2 2 2 2 2 2 1 1 1 1 1 1 1 2 2 2 2 1 1 1 1 1 1 2 1
16 15 13 11 10 7 6 5 5 4 3 2 1 1 1 1 1 1 1 1 2 1 1 1 1 0 1 1 1 1 2 2 2 1 1 1 1 1 1 1 2 2 2
16 15 14 12 11 8 7 5 5 5 4 2 1 1 1 2 1 1 1 2 2 1 1 1 1 1 1 1 1 1 2 2 1 2 2 2 2 2 2 2 2 2 2
17 16 15 14 12 10 8 7 6 5 5 4 1 1 2 2 2 1 2 2 2 2 2 1 1 1 1 1 1 2 2 2 2 2 2 2 2 2 3 3 3 3 4
18 16 15 14 13 12 10 8 7 6 5 5 3 1 1 2 2 2 2 2 3 3 3 2 2 1 1 2 2 2 2 3 3 3 3 3 3 3 4 4 4 5 5
17 16 15 14 13 12 11 9 7 7 5 4 3 1 0 1 2 3 3 3 3 3 4 3 3 3 3 2 2 3 3 3 3 4 4 4 4 4 4 5 6 6 6
17 16 15 14 13 12 11 11 9 7 6 4 3 2 1 1 2 3 4 4 4 4 4 4 4 4 4 4 4 4 4 4 4 4 5 5 5 5 5 6 7 7 7
17 16 16 14 13 12 11 10 10 9 7 5 4 3 2 2 2 3 3 4 4 4 4 4 5 5 5 5 5 5 5 6 5 5 5 6 6 7 7 8 8 9 9
16 16 16 15 14 12 10 9 9 9 7 7 5 4 3 2 2 3 4 4 4 4 5 5 5 6 6 6 6 7 7 7 6 7 7 7 8 9 9 10 10 11 11
15 15 15 15 14 13 11 10 9 8 7 6 5 5 4 3 3 3 4 4 5 5 5 5 6 6 7 7 8 8 8 8 8 9 9 9 9 10 11 12 12 12 13
15 14 15 14 13 12 11 10 9 8 7 6 5 5 5 4 4 4 4 5 5 5 6 6 6 7 7 8 9 9 9 10 10 10 11 11 11 12 12 13 13 14 14
14 14 14 13 13 12 12 10 9 8 8 7 6 6 5 4 3 4 4 4 5 6 6 6 6 7 8 9 9 9 10 10 11 12 12 12 13 14 14 15 15 15 15
13 13 13 13 13 12 11 11 10 9 8 7 7 6 5 4 4 5 4 5 5 6 6 7 7 8 9 9 10 11 11 12 12 13 13 14 15 15 15 16 17 17 17

GEFSSE_500_meanwind_186.txt.gz
Wind_Speed
8 7 7 7 8 9 9 9 10 10 10 10 9 9 9 8 8 8 8 7 6 6 6 7 7 7 7 7 7 6 6 6 5 5 5 4 4 4 5 5 5 5 5
7 7 6 6 7 8 9 9 9 10 10 10 10 9 9 8 8 8 8 7 7 7 7 6 7 7 7 7 7 6 5 6 5 5 5 4 5 5 5 5 5 5 5
7 6 6 6 6 7 8 9 9 9 9 9 9 9 9 8 8 8 7 7 7 7 7 6 6 6 6 6 6 5 5 6 5 5 5 5 5 5 5 5 4 4 4
7 6 6 6 6 6 7 8 8 9 9 9 9 9 8 8 7 7 7 7 7 7 7 7 6 6 6 6 5 5 5 5 5 5 5 5 5 4 4 4 4 4 4
7 5 5 5 5 6 6 7 8 8 8 8 8 8 8 8 8 7 7 7 7 7 7 7 6 6 6 6 5 5 5 5 5 5 5 5 4 4 4 4 3 3 3
7 5 5 5 5 5 6 6 7 7 7 7 8 8 8 8 8 7 7 7 6 6 7 7 6 5 5 5 5 5 5 5 5 5 4 4 4 4 3 3 3 3 3
7 5 4 4 4 4 5 6 6 6 7 7 7 7 7 8 8 7 7 7 6 7 7 7 6 6 5 5 5 5 5 5 5 5 4 4 4 4 3 3 2 2 2
7 5 4 4 4 4 5 5 5 6 6 7 7 7 7 7 8 7 7 7 7 7 6 6 6 6 5 5 5 5 5 5 5 4 4 3 3 3 3 3 2 2 2
8 6 5 5 4 4 4 4 5 5 6 6 7 7 7 7 7 7 7 7 7 6 6 6 6 6 6 5 5 5 5 5 5 4 4 3 3 3 3 2 2 2 2
8 7 7 6 5 5 5 5 5 5 6 6 6 6 6 7 7 7 7 7 7 6 6 6 5 5 5 5 5 5 4 4 4 4 4 3 3 3 3 2 2 2 2
9 8 7 6 6 6 5 5 5 5 5 5 6 6 6 6 6 6 6 6 6 6 6 5 5 5 5 5 4 5 4 4 3 3 3 3 3 2 2 2 2 1 1
9 8 7 7 7 6 6 5 5 5 5 5 5 5 5 6 6 6 6 6 6 6 5 5 5 5 4 4 4 4 4 3 3 2 2 2 2 2 2 2 2 1 1
10 9 8 7 7 6 5 5 4 4 4 4 4 5 5 5 5 5 5 5 5 5 4 4 4 4 3 3 3 3 3 3 2 2 2 2 2 2 1 1 1 1 1
12 11 9 7 6 5 5 4 4 4 3 3 3 4 4 5 4 4 4 4 4 3 3 3 3 3 3 3 3 3 3 2 2 2 2 2 2 1 1 0 0 1 1
13 12 10 8 6 5 5 4 4 4 3 3 3 4 4 4 4 4 4 3 2 2 2 2 3 2 2 2 2 2 2 1 1 1 1 1 1 0 0 0 1 1 2
13 12 11 9 7 6 6 4 4 4 4 3 3 3 4 4 4 4 4 4 3 2 2 2 3 2 2 1 2 1 1 1 1 1 1 1 1 1 1 1 2 2 3
14 13 12 11 9 7 6 5 5 4 4 3 2 2 3 3 4 4 4 4 3 3 2 3 3 3 2 2 2 2 2 2 2 2 2 2 2 2 2 2 3 3 3
15 13 13 12 10 9 7 6 5 3 3 2 2 2 2 2 3 3 4 3 3 3 3 4 4 3 3 3 3 3 3 3 3 3 3 3 3 4 4 4 4 4 4
15 14 13 12 11 10 8 7 6 4 3 2 2 2 2 2 2 3 3 3 3 3 4 4 4 4 4 4 3 3 3 4 4 4 4 5 5 5 5 5 6 6 6
16 15 14 13 13 12 10 9 8 5 4 3 2 1 1 2 2 3 3 3 4 4 4 4 4 5 5 5 5 4 5 5 5 6 6 6 6 7 7 7 7 7 7
15 15 14 13 13 12 11 10 8 7 5 4 3 2 2 1 2 3 4 4 4 4 5 5 5 5 5 6 6 6 6 6 7 7 7 7 8 8 9 9 9 9 10
15 15 14 13 13 12 11 10 9 7 6 5 4 3 2 1 2 3 4 5 5 5 5 6 6 6 6 7 7 8 8 8 8 8 9 9 9 10 10 10 10 11 11
15 14 13 13 12 12 11 10 9 7 6 5 5 4 3 3 3 3 4 4 5 5 5 6 7 7 7 7 8 8 9 9 10 10 11 11 11 12 12 12 12 12 12
14 14 13 13 12 12 11 10 9 8 7 6 6 5 4 4 3 3 3 4 4 5 6 6 7 7 8 8 8 9 9 10 11 11 12 12 12 13 13 13 13 14 14
13 13 13 13 13 12 11 10 9 8 8 7 6 5 5 5 4 4 5 5 5 5 6 6 7 7 8 8 9 9 10 11 11 12 13 14 14 15 15 14 15 16 16
13 13 13 13 13 12 11 10 9 9 8 8 7 7 6 6 6 6 6 6 6 6 6 7 7 7 8 9 10 11 12 12 13 13 14 15 15 16 16 16 16 17 17

GEFSSE_500_meanwind_192.txt.gz
Wind_Speed
6 5 5 4 4 4 3 3 3 4 4 4 4 5 5 6 6 6 7 7 7 7 7 7 8 8 8 8 8 7 7 7 7 6 6 6 7 6 5 5 6 5 6
6 5 5 4 4 3 3 3 3 3 4 4 4 4 5 5 6 6 6 6 6 7 7 7 7 8 8 8 7 7 7 7 7 7 7 7 7 6 6 6 6 6 5
5 5 5 4 4 3 3 3 3 3 3 3 4 4 5 5 5 5 6 6 6 6 6 7 7 8 8 7 7 6 6 6 6 7 7 7 7 6 6 7 6 5 5
5 5 5 4 4 3 3 2 2 3 3 3 3 4 4 5 5 5 5 5 6 6 6 7 7 7 7 6 6 6 6 6 6 6 6 6 6 7 7 6 6 6 6
6 5 5 4 4 3 2 2 2 2 2 3 3 3 4 4 5 4 5 5 5 6 6 7 6 6 6 6 6 6 6 6 6 6 6 6 6 6 6 6 6 6 6
7 6 5 4 4 2 2 1 1 1 2 2 2 3 3 3 4 4 4 4 4 5 6 6 6 5 5 5 5 6 6 6 6 6 6 6 6 6 6 6 5 5 5
8 7 6 5 4 3 2 2 1 1 1 2 2 2 3 3 4 4 4 4 4 5 5 6 5 5 5 5 5 5 6 5 5 5 6 6 5 5 5 5 5 5 4
9 8 7 6 5 4 3 2 1 1 1 1 1 2 2 3 3 4 4 4 5 5 5 5 5 5 5 5 5 5 5 5 5 5 5 5 5 5 5 4 4 4 3
10 9 8 7 6 4 3 2 2 1 1 1 1 1 2 3 3 3 4 5 5 5 5 6 5 5 5 5 5 5 5 5 5 5 5 5 5 4 4 4 4 3 3
11 10 8 8 7 5 4 3 2 1 0 0 1 1 1 1 2 2 4 4 5 5 5 5 5 5 4 4 4 4 4 5 5 5 4 4 4 4 3 3 3 3 3
12 10 8 8 7 6 5 4 2 1 1 0 1 1 1 1 2 3 4 4 4 4 4 4 4 4 4 4 4 4 4 4 4 4 4 3 3 3 2 2 2 2 2
13 11 9 8 7 6 5 4 3 2 1 0 1 1 1 1 2 3 3 3 3 3 3 3 3 3 3 3 3 3 3 3 3 3 3 3 3 2 2 2 2 2 2
14 13 10 8 8 7 7 6 4 3 1 0 1 1 1 2 2 3 3 3 3 2 2 2 3 3 2 2 2 2 2 2 2 2 2 2 2 2 2 2 2 2 2
15 14 12 10 9 8 7 6 5 3 2 1 0 1 1 1 2 2 2 2 1 1 1 0 1 1 1 1 1 1 1 1 1 1 1 1 1 1 1 1 1 1 1
16 15 13 11 9 9 8 6 5 3 2 1 0 1 1 1 1 2 1 1 1 1 1 0 1 1 1 0 0 0 0 0 0 0 1 1 1 1 1 2 2 2 2
16 16 14 12 10 9 8 8 6 5 3 1 1 0 1 1 1 1 1 1 1 1 1 2 1 1 1 0 0 1 1 1 1 1 1 1 1 2 2 3 3 3 3
17 16 15 13 11 10 9 8 7 6 4 3 2 1 1 1 1 1 1 2 2 2 2 2 1 1 1 2 2 2 2 2 2 2 2 2 3 3 3 4 4 4 4
17 17 15 13 12 11 10 9 8 7 4 3 2 2 2 1 1 1 1 2 2 2 2 2 2 3 3 3 3 3 3 3 3 3 4 4 5 5 5 5 5 5 6
18 17 16 15 13 12 11 10 9 7 5 4 3 2 2 1 1 1 2 2 2 3 3 3 3 3 4 4 4 4 4 5 5 4 5 5 6 6 6 7 6 6 7
18 16 16 15 14 13 12 12 11 9 7 5 4 3 3 2 2 2 2 2 3 4 4 4 4 4 4 4 5 5 6 6 6 6 6 6 7 7 8 8 8 8 9
18 17 17 16 15 14 14 13 12 10 8 6 6 5 5 4 3 2 3 3 4 4 5 5 5 5 5 6 6 7 7 7 7 7 7 8 8 8 8 9 9 10 11
18 18 18 17 16 15 14 13 12 11 9 8 7 7 6 4 3 3 3 4 4 5 5 6 7 7 7 7 8 8 8 9 9 9 9 9 10 10 10 10 11 12 13
18 18 17 17 16 15 15 14 13 12 11 10 9 8 7 5 4 4 4 4 5 5 6 6 7 8 8 8 9 9 8 9 9 10 10 11 11 11 12 12 13 13 14
17 17 17 17 16 15 15 13 13 12 11 11 9 9 7 6 5 5 5 5 6 6 6 6 7 8 8 9 9 10 10 10 10 11 11 12 13 13 14 14 14 15 15
17 17 17 17 17 16 15 13 12 12 11 11 11 9 8 7 7 7 6 6 6 6 7 7 7 8 8 9 9 9 10 10 11 11 12 12 13 14 14 15 15 15 16
16 16 16 17 16 16 15 14 13 12 12 12 11 10 9 9 8 8 7 7 7 7 7 8 8 8 8 9 9 10 10 11 12 12 13 14 14 15 16 16 16 17 18

GEFSSE_500_meanwind_198.txt.gz
Wind_Speed
8 8 7 7 6 6 6 5 4 4 4 4 4 4 3 4 5 5 6 7 7 7 7 8 8 8 8 8 8 8 7 7 7 7 7 7 7 7 7 6 7 6 7
8 8 7 7 7 7 7 6 6 5 4 4 4 3 3 4 5 5 6 6 6 7 7 7 8 8 8 8 8 7 7 7 6 7 7 7 7 7 6 6 6 6 7
8 7 7 7 7 7 7 6 5 5 4 4 3 3 3 4 4 5 6 6 6 6 6 7 7 8 8 7 7 7 7 7 7 7 7 7 7 7 7 6 6 6 6
8 7 7 7 7 7 6 6 5 5 4 4 3 3 3 3 4 4 4 5 5 6 6 6 7 7 7 7 7 7 7 7 7 7 7 7 7 6 7 6 6 6 6
9 8 7 6 6 6 5 5 4 4 4 3 3 3 3 3 3 4 4 5 5 5 6 6 6 7 7 7 7 7 7 7 7 7 7 6 6 6 6 6 5 5 5
10 9 8 7 6 5 5 5 4 4 3 3 3 3 3 3 3 4 5 5 5 5 5 5 6 6 6 7 7 6 6 6 6 6 6 6 6 6 6 5 5 6 5
11 10 8 8 7 6 5 5 4 4 3 3 3 3 3 3 3 4 4 5 5 5 5 5 5 5 5 6 6 6 5 5 5 6 5 5 5 6 5 5 5 5 5
11 10 10 9 8 7 6 5 4 4 3 3 3 3 3 3 4 4 4 4 4 4 4 5 5 5 5 5 5 5 4 4 5 5 4 5 5 5 5 5 4 4 4
12 11 10 9 8 7 6 6 5 4 3 3 2 3 3 3 3 4 4 4 5 5 5 4 5 5 5 5 5 5 4 4 5 5 5 4 4 4 4 4 4 4 4
12 11 11 10 9 8 7 6 5 4 3 3 3 3 3 3 3 4 5 5 5 5 5 4 4 4 5 5 4 4 4 4 4 4 4 4 4 4 3 3 3 3 3
13 12 11 11 10 8 7 6 6 4 3 3 3 3 2 3 3 4 5 5 5 5 4 4 4 4 5 5 5 5 4 4 4 4 3 3 3 3 2 2 2 2 2
14 12 11 11 10 9 8 7 6 5 4 3 2 2 2 2 3 4 4 4 5 5 4 4 4 4 4 4 4 4 4 4 3 3 2 2 2 2 2 2 2 2 1
15 13 12 11 11 9 9 8 6 5 4 3 2 2 2 2 3 4 4 4 4 4 3 4 4 4 3 3 3 3 3 3 3 2 2 2 2 2 1 1 1 1 1
15 14 12 11 10 9 9 8 7 6 5 3 3 2 2 2 3 3 3 2 2 2 2 2 3 3 2 2 2 2 2 2 1 1 1 1 1 1 1 1 0 0 0
16 15 13 12 11 11 10 9 8 7 6 4 3 2 2 3 3 3 2 2 2 1 1 2 2 2 1 2 2 2 1 1 1 0 0 0 1 0 0 1 1 1 2
17 16 14 13 12 12 11 10 7 6 6 5 3 2 2 2 2 2 2 2 1 1 1 1 1 1 1 1 1 2 2 1 1 1 1 1 1 1 1 2 2 3 3
17 17 15 14 13 12 12 10 8 6 6 5 4 3 2 2 2 2 1 1 1 1 1 1 1 1 1 2 2 2 2 1 2 2 2 2 2 2 2 3 3 4 4
18 17 16 14 13 13 12 11 9 7 6 5 4 3 2 2 1 1 1 1 1 0 0 0 1 1 2 2 2 3 3 3 3 3 4 4 4 5 5 5 5 5 5
18 17 16 14 13 13 12 11 10 8 7 6 5 4 3 2 2 1 1 1 1 0 1 1 1 1 2 2 3 3 3 4 4 5 5 6 6 6 7 7 6 7 7
17 17 17 15 14 13 12 11 10 8 7 6 6 4 4 3 2 1 1 1 0 1 1 2 2 2 2 3 4 4 5 6 7 7 7 7 7 7 8 8 8 9 8
18 17 17 16 14 13 13 12 11 10 9 8 7 5 4 3 2 1 1 1 1 1 2 2 3 3 3 4 5 6 6 7 8 8 8 8 8 8 9 10 11 11 11
18 17 17 16 15 14 13 13 12 10 10 9 8 7 5 4 3 2 2 1 1 2 2 3 4 4 5 5 6 6 7 7 7 8 9 9 9 9 10 10 11 11 12
18 17 16 15 14 14 13 13 12 11 10 9 8 7 6 4 3 2 2 2 2 2 3 3 3 4 4 5 6 6 6 7 7 8 9 9 10 11 11 11 11 12 13
17 17 16 16 15 14 13 13 13 12 11 10 9 8 8 6 4 3 3 2 2 3 4 4 4 4 5 5 6 6 6 6 7 8 8 10 11 12 12 13 13 13 14
17 17 16 16 15 14 13 12 12 12 11 11 10 9 9 7 6 5 4 3 3 4 4 5 5 5 5 6 6 6 7 7 8 8 9 10 11 12 12 13 14 15 16
16 16 16 15 15 14 13 12 12 11 11 10 10 10 10 9 7 6 5 4 4 5 6 6 7 7 7 7 7 8 8 8 9 9 10 10 11 12 13 14 15 16 17

GEFSSE_500_meanwind_204.txt.gz
Wind_Speed
7 6 6 7 7 8 9 9 8 9 9 8 8 8 8 7 7 7 7 7 7 6 6 7 8 7 8 8 8 8 8 8 8 8 7 7 6 6 6 6 6 6 6
7 7 7 7 8 8 8 9 9 9 8 8 8 8 7 7 7 7 7 7 7 6 6 6 7 7 8 8 8 7 7 7 7 7 6 6 6 6 6 6 6 6 5
7 7 8 8 8 8 9 9 9 8 8 8 8 7 7 7 7 7 7 7 7 6 6 6 6 6 7 7 7 7 6 6 6 6 6 6 6 5 5 5 5 5 5
7 7 7 8 8 8 8 8 8 8 8 7 7 7 7 7 7 7 7 6 6 6 6 6 6 6 6 6 6 6 6 6 6 6 6 6 5 5 5 5 5 4 4
7 7 8 8 7 7 7 7 7 7 7 7 7 7 7 6 6 6 6 6 6 6 6 6 6 6 6 6 6 6 6 6 6 6 5 5 5 5 5 4 4 4 3
7 8 8 8 8 7 7 7 7 7 7 7 7 7 6 6 6 6 6 6 6 6 6 6 6 6 6 6 6 6 6 6 5 5 4 4 4 4 4 4 3 3 3
8 8 9 8 8 8 7 7 7 6 6 6 6 6 6 6 7 6 6 6 6 6 6 6 6 6 5 5 6 5 5 5 5 5 4 4 3 3 3 3 3 3 3
10 10 9 9 8 8 8 7 7 6 6 5 5 6 6 6 6 6 5 6 6 6 6 5 5 5 5 5 5 5 5 5 5 4 4 4 3 3 3 3 2 3 3
11 10 10 9 8 8 7 7 6 6 5 5 5 5 5 5 5 5 5 5 5 5 5 5 4 4 4 4 4 4 4 4 4 4 4 4 4 3 3 3 3 3 3
11 11 11 10 9 8 7 7 6 6 5 5 4 4 5 5 5 5 5 5 5 5 5 4 4 4 4 3 3 3 4 3 3 3 3 3 3 3 3 3 3 2 2
12 12 11 11 9 8 8 7 6 5 5 4 4 4 5 5 5 5 5 5 5 4 4 4 4 4 3 3 3 3 3 2 2 2 2 2 2 2 2 2 2 1 1
13 12 12 11 10 9 8 7 6 5 5 5 4 3 4 5 5 4 4 4 4 4 3 3 3 4 3 3 3 3 2 2 2 2 2 2 2 2 2 1 1 0 0
13 12 12 11 10 9 8 8 7 6 6 5 5 4 4 4 4 4 4 4 4 3 3 2 3 3 3 3 3 2 2 2 2 1 1 1 1 1 1 1 0 0 1
13 12 12 12 11 10 9 8 7 6 6 5 5 4 4 4 3 4 4 4 4 3 2 2 2 2 2 2 2 2 1 1 1 1 1 1 1 1 0 0 1 1 1
13 12 12 11 11 10 9 8 7 6 5 5 4 4 4 3 3 3 3 3 3 3 3 2 2 2 1 1 1 1 0 0 0 0 0 0 0 1 1 1 2 2 3
13 12 11 11 10 10 9 8 6 6 6 5 4 4 4 3 3 3 2 2 3 3 3 2 2 2 1 1 1 1 1 1 0 1 1 2 2 3 3 3 3 4 4
14 13 12 11 10 10 10 9 7 6 5 4 4 4 3 2 2 2 2 1 2 3 3 2 2 2 1 1 2 2 2 1 1 2 3 3 4 4 4 4 5 5 5
14 13 12 12 11 10 10 10 8 7 6 5 4 3 2 2 2 1 1 2 2 3 3 3 2 2 2 2 2 2 3 3 3 4 4 5 5 5 5 5 6 6 7
14 13 12 12 11 10 10 10 9 8 7 5 5 4 3 2 1 0 1 1 2 2 3 3 3 3 3 3 3 4 4 4 5 5 5 6 6 7 7 7 7 8 8
15 14 13 12 12 11 10 10 10 9 8 6 6 5 4 3 2 1 0 1 1 2 3 3 3 3 4 4 4 4 5 6 6 7 7 8 8 8 8 9 9 10 10
15 14 14 13 12 12 11 11 10 9 9 8 6 6 5 4 2 2 1 1 2 2 2 3 4 4 5 5 5 5 6 7 7 8 8 9 9 9 10 10 11 11 11
15 14 13 13 12 12 12 11 10 10 10 10 9 7 6 5 4 3 2 2 2 2 3 3 4 5 5 5 6 6 7 7 7 8 9 9 9 11 11 12 12 12 13
15 15 14 13 12 12 12 12 12 11 11 11 10 9 8 6 5 4 3 3 3 3 4 4 5 5 6 6 6 7 7 8 8 8 9 9 10 11 12 12 12 13 15
14 14 13 13 12 12 13 13 12 11 11 11 10 9 8 7 6 5 5 5 4 5 5 5 5 5 6 7 7 8 8 8 9 9 9 10 10 11 12 12 13 14 16
13 13 13 13 12 12 12 12 12 12 11 11 10 10 9 8 7 6 5 5 6 6 6 6 6 6 7 8 9 9 9 10 10 10 11 11 11 12 13 13 14 16 16
12 12 12 13 12 12 12 12 12 12 12 12 11 10 10 10 9 7 7 6 6 7 7 7 8 8 9 9 10 11 11 11 11 11 12 12 12 13 14 14 15 15 16

GEFSSE_500_meanwind_210.txt.gz
Wind_Speed
7 7 7 7 7 7 7 8 8 9 9 9 10 10 9 9 9 9 9 9 9 9 9 9 11 11 11 11 11 11 11 11 10 10 9 8 8 7 6 6 5 5 5
7 7 7 6 6 6 7 8 8 9 9 9 10 10 10 10 10 9 9 9 8 8 9 10 12 11 11 11 11 10 10 10 10 9 8 8 7 7 7 6 5 5 5
7 7 6 6 6 6 6 7 8 8 9 9 9 9 9 10 10 9 9 8 8 8 9 10 11 11 11 11 10 9 9 8 9 8 8 7 7 7 6 5 5 5 4
7 6 6 6 6 6 6 7 8 9 9 9 9 9 9 9 9 8 8 8 8 8 9 10 10 10 10 9 9 9 8 8 8 7 7 7 7 6 6 5 5 4 4
7 6 6 5 5 6 6 7 8 9 9 9 9 9 9 9 9 9 9 9 8 8 9 10 10 9 9 9 9 9 8 8 8 7 7 7 6 6 5 5 4 4 3
7 6 5 5 5 6 6 7 7 8 8 8 8 8 9 9 9 9 9 9 9 9 9 9 9 9 9 8 8 8 8 7 7 7 7 6 6 5 5 5 4 4 3
7 6 5 5 5 6 6 7 7 7 8 8 8 8 8 9 9 9 9 9 9 9 9 9 8 8 8 8 8 8 8 7 7 7 6 5 5 4 4 4 4 3 3
8 7 6 6 5 6 6 6 7 7 7 8 8 8 8 9 9 9 8 8 8 8 8 8 8 8 8 7 7 7 7 7 6 6 5 4 4 4 3 3 3 3 3
8 7 6 6 6 6 6 6 7 7 6 7 7 8 8 8 8 8 8 8 8 8 8 7 7 7 7 7 7 7 7 6 5 5 4 4 4 3 3 3 3 3 3
8 7 7 6 6 5 5 6 6 6 6 6 7 7 7 7 7 7 7 8 7 7 7 7 6 6 6 6 6 7 6 6 5 5 4 4 3 3 3 3 3 3 2
8 8 7 7 6 5 5 5 5 5 5 6 6 6 6 6 6 6 7 7 7 6 6 6 6 6 5 5 5 5 5 5 5 4 4 3 3 3 3 3 2 2 2
8 8 7 7 6 6 5 5 5 5 5 5 6 6 6 6 6 6 6 7 6 6 6 6 5 5 5 5 4 4 4 4 4 4 3 3 3 3 3 2 2 2 1
9 8 8 7 7 6 6 5 5 5 5 5 5 5 5 5 5 5 6 6 6 5 5 5 5 5 4 3 3 3 3 3 3 3 2 2 3 2 2 2 2 1 1
9 8 8 8 7 6 6 6 5 5 5 5 5 4 5 5 4 5 5 5 5 5 5 4 4 4 3 3 3 2 2 2 2 2 2 2 3 3 2 2 2 2 2
9 9 9 8 8 8 6 6 5 5 5 4 4 4 4 4 4 4 4 3 3 4 4 4 4 3 3 2 2 2 2 2 2 2 2 3 3 3 3 3 3 4 4
10 9 9 9 9 9 7 5 5 5 4 4 4 4 4 3 4 4 3 2 3 3 3 4 4 3 3 2 2 2 2 2 2 3 3 3 3 4 4 4 4 5 5
11 10 10 9 9 9 9 8 7 6 5 4 4 4 3 3 3 3 2 2 2 3 3 3 3 3 3 2 2 3 3 3 3 3 4 4 4 4 5 5 5 6 6
11 11 10 10 9 9 9 9 8 7 6 5 4 4 3 2 1 1 1 1 3 3 3 3 3 3 3 3 3 3 3 4 4 4 4 5 5 6 6 7 7 7 7
12 11 11 10 10 9 10 10 9 8 7 6 5 4 3 2 2 1 1 1 2 3 3 3 3 3 3 3 4 4 5 5 4 5 5 6 6 7 7 7 8 9 9
12 11 11 11 10 9 9 10 10 9 8 7 6 5 4 3 2 1 0 0 1 2 3 3 3 3 4 4 5 5 6 5 6 6 7 8 8 8 8 9 9 10 10
12 12 11 11 11 10 10 10 9 9 9 8 7 5 5 4 3 3 2 1 0 2 2 3 3 4 4 4 5 6 6 6 7 7 8 9 9 9 10 11 11 11 12
13 12 12 11 11 11 10 10 9 9 8 8 7 5 4 4 4 4 3 2 1 1 2 3 3 4 5 5 6 6 7 7 7 8 9 9 10 11 11 12 12 13 13
13 12 11 11 11 11 11 10 10 10 9 8 7 7 6 5 4 4 3 3 2 2 3 4 4 5 5 6 6 7 8 8 9 9 9 10 10 10 11 12 13 14 14
13 12 12 12 11 11 10 10 10 10 10 9 8 8 7 6 6 4 4 4 4 4 4 4 5 6 6 7 7 8 9 10 10 11 11 11 11 12 12 13 13 14 15
12 12 12 12 11 11 11 11 10 10 10 9 9 9 9 8 7 6 6 6 5 5 5 5 6 7 7 8 8 9 10 10 11 11 12 13 13 13 13 13 14 15 15
12 12 12 11 11 11 12 11 11 11 10 10 10 9 9 9 9 8 7 7 6 6 6 6 7 8 8 9 9 10 10 11 11 12 13 14 14 15 15 15 15 16 16

GEFSSE_500_meanwind_216.txt.gz
Wind_Speed
4 4 4 4 4 3 3 3 3 3 4 4 4 5 6 7 7 7 8 9 10 11 12 14 14 12 13 13 13 13 12 11 11 11 10 8 7 7 7 7 6 6 5
5 5 4 4 4 4 3 3 3 3 4 4 5 5 6 7 7 7 8 8 8 10 10 12 12 12 12 12 12 12 11 10 10 9 9 8 7 6 6 6 5 5 5
5 5 4 4 3 3 4 4 3 3 3 3 4 5 6 7 8 8 8 9 9 9 10 11 11 11 11 12 12 11 10 9 8 9 8 8 6 6 6 6 5 4 5
6 5 4 4 4 3 3 4 3 3 3 3 3 5 6 7 7 8 8 8 8 8 10 10 10 10 10 11 11 10 9 8 8 8 8 7 7 6 6 5 5 5 5
6 5 5 5 4 4 3 3 3 3 3 3 4 5 6 7 7 7 7 6 7 9 10 10 9 10 10 9 10 10 9 9 8 8 8 7 7 7 6 6 5 5 4
6 6 5 5 4 4 3 3 3 3 3 4 4 5 6 6 6 7 7 7 8 9 9 9 9 10 10 9 9 9 9 8 8 7 7 6 6 7 7 6 6 5 4
7 7 6 5 5 4 3 3 3 3 4 4 3 4 5 6 6 7 7 8 8 9 9 9 9 10 10 9 9 8 7 7 7 6 6 6 6 5 6 5 5 5 4
8 7 6 6 5 4 3 3 3 3 3 4 4 4 4 6 6 7 7 7 7 8 8 9 9 9 9 9 8 8 7 6 6 5 5 5 5 5 4 4 4 4 4
10 9 7 6 5 4 4 3 3 3 3 3 4 4 5 6 6 7 7 7 7 7 7 8 8 8 8 7 7 7 6 6 5 5 5 4 4 3 3 3 3 3 3
11 10 9 7 6 4 4 3 2 2 3 3 3 3 4 5 5 6 6 6 6 6 6 6 6 7 6 6 6 6 6 5 5 4 4 4 3 3 3 3 3 2 2
11 10 9 8 6 5 4 3 2 2 2 3 3 3 3 4 4 5 5 5 5 5 5 5 6 6 5 5 5 5 4 4 3 3 3 3 2 2 2 2 2 1 1
11 10 9 8 7 6 5 4 3 2 2 2 2 3 3 3 4 4 4 5 5 5 5 5 4 4 4 4 4 4 4 3 3 3 3 3 3 3 2 2 1 1 1
11 11 11 9 8 6 5 4 3 2 2 2 2 2 3 3 3 4 4 4 5 4 4 4 4 3 2 3 3 2 2 2 2 2 2 2 2 1 1 1 1 1 2
12 12 11 11 9 7 6 5 4 2 2 2 1 1 2 2 3 3 3 4 4 3 3 3 3 2 2 2 1 1 1 2 1 1 1 1 0 0 1 1 1 2 2
12 12 11 11 10 9 8 7 5 3 3 2 2 1 1 2 3 3 3 2 2 2 2 2 3 2 2 1 1 1 1 1 1 1 1 1 1 2 2 2 2 3 3
12 12 11 11 11 10 9 8 7 6 5 4 3 2 2 2 2 2 2 1 1 2 2 2 2 2 1 1 1 0 1 1 1 1 2 2 2 3 3 3 4 4 4
12 11 11 11 10 10 10 10 8 7 6 5 4 3 2 2 1 1 1 0 1 1 2 2 2 2 2 2 2 2 2 2 3 3 3 3 3 4 4 4 5 5 6
12 12 11 11 10 10 10 9 9 8 7 6 6 5 4 2 1 1 1 1 0 0 0 1 1 1 2 2 3 3 3 3 3 4 4 4 4 5 5 5 6 6 7
13 12 11 10 10 10 10 9 9 9 8 7 6 6 5 4 3 1 1 1 0 0 1 1 1 2 3 3 3 4 4 5 5 5 5 6 6 6 6 6 7 8 8
14 13 12 11 10 10 10 9 9 9 8 7 7 6 6 5 4 2 1 1 1 1 1 1 2 3 3 3 4 5 5 6 6 7 7 7 7 7 8 8 9 9 10
14 13 12 12 11 11 10 10 9 9 8 8 7 7 6 6 6 5 3 2 2 2 2 2 3 4 4 5 6 6 6 6 6 7 7 8 8 8 9 10 10 11 11
15 14 13 13 12 12 11 11 10 9 9 8 8 8 7 7 6 6 5 4 3 4 4 4 4 5 6 6 6 6 6 7 7 7 9 9 9 10 10 10 11 11 12
14 14 13 13 13 13 12 12 11 11 10 10 10 9 9 8 7 7 7 6 5 5 5 5 5 6 7 7 7 7 7 8 8 8 8 9 10 11 11 11 11 12 13
13 14 13 13 13 13 13 12 12 12 12 11 10 10 10 9 9 8 8 7 7 6 5 6 6 7 7 8 8 8 8 8 9 9 9 10 10 11 12 12 13 14 14
12 12 12 13 13 13 13 13 12 11 11 11 10 10 10 10 10 10 9 9 8 8 7 7 8 8 8 9 9 9 10 10 10 10 11 12 12 13 13 13 14 15 15
11 11 11 11 12 12 12 12 12 12 11 10 10 10 10 10 10 10 11 10 9 8 8 8 8 9 10 10 10 11 11 11 11 12 13 13 14 14 15 15 15 15 15